Time,TemperatureF,DewpointF,PressureIn,WindDirection,WindDirectionDegrees,WindSpeedMPH,WindSpeedGustMPH,Humidity,HourlyPrecipIn,Conditions,Clouds,dailyrainin,SoftwareType,DateUTC
2013-07-19 00:00:00,69.5,68.6,30.04,NE,47,1.0,1.0,97,0.00,,,1.07,Wunderground v.1.15,2013-07-19 04:00:00,
2013-07-19 00:01:00,69.5,68.6,30.04,NE,46,2.0,2.0,97,0.00,,,1.07,Wunderground v.1.15,2013-07-19 04:01:00,
2013-07-19 00:02:00,69.5,68.6,30.04,NE,46,1.0,2.0,97,0.00,,,1.07,Wunderground v.1.15,2013-07-19 04:02:00,
2013-07-19 00:03:00,69.5,68.6,30.03,ENE,68,1.0,-999.0,97,0.00,,,0.01,Wunderground v.1.15,2013-07-19 04:03:00,
2013-07-19 00:06:00,69.5,68.6,30.04,ENE,75,0.0,5.0,97,0.00,,,0.00,Wunderground v.1.15,2013-07-19 04:06:00,
2013-07-19 00:07:00,69.5,68.6,30.04,ENE,74,0.0,5.0,97,0.00,,,0.00,Wunderground v.1.15,2013-07-19 04:07:00,
2013-07-19 00:08:00,69.6,68.7,30.03,ENE,68,1.0,-999.0,97,0.00,,,0.01,Wunderground v.1.15,2013-07-19 04:08:00,
2013-07-19 00:11:00,69.6,68.7,30.03,ENE,74,0.0,3.0,97,0.00,,,0.00,Wunderground v.1.15,2013-07-19 04:11:00,
2013-07-19 00:12:00,69.5,68.6,30.03,ENE,74,0.0,3.0,97,0.00,,,0.00,Wunderground v.1.15,2013-07-19 04:12:00,
2013-07-19 00:13:00,69.6,68.7,30.03,ENE,68,1.0,-999.0,97,0.00,,,0.01,Wunderground v.1.15,2013-07-19 04:13:00,
2013-07-19 00:16:00,69.6,68.7,30.03,ENE,74,1.0,3.0,97,0.00,,,0.00,Wunderground v.1.15,2013-07-19 04:16:00,
2013-07-19 00:17:00,69.6,68.7,30.03,ENE,73,1.0,3.0,97,0.00,,,0.00,Wunderground v.1.15,2013-07-19 04:17:00,
2013-07-19 00:18:00,69.6,68.7,30.03,ENE,68,1.0,-999.0,97,0.00,,,0.01,Wunderground v.1.15,2013-07-19 04:18:00,
2013-07-19 00:21:00,69.6,68.7,30.03,ENE,74,0.0,2.0,97,0.00,,,0.00,Wunderground v.1.15,2013-07-19 04:21:00,
2013-07-19 00:22:00,69.6,68.7,30.03,ENE,74,0.0,2.0,97,0.00,,,0.00,Wunderground v.1.15,2013-07-19 04:22:00,
2013-07-19 00:23:00,69.6,68.7,30.03,ENE,74,1.0,2.0,97,0.00,,,0.00,Wunderground v.1.15,2013-07-19 04:23:00,
2013-07-19 00:26:00,69.7,68.8,30.03,ENE,74,0.0,3.0,97,0.00,,,0.00,Wunderground v.1.15,2013-07-19 04:26:00,
2013-07-19 00:28:00,69.7,68.8,30.03,ENE,74,2.0,3.0,97,0.00,,,0.00,Wunderground v.1.15,2013-07-19 04:28:00,
2013-07-19 00:29:00,69.7,68.8,30.03,ENE,74,1.0,3.0,97,0.00,,,0.00,Wunderground v.1.15,2013-07-19 04:29:00,
2013-07-19 00:32:00,69.7,68.8,30.03,ENE,74,1.0,1.0,97,0.00,,,0.00,Wunderground v.1.15,2013-07-19 04:32:00,
2013-07-19 00:33:00,69.7,69.1,30.03,ENE,74,1.0,1.0,98,0.00,,,0.00,Wunderground v.1.15,2013-07-19 04:33:00,
2013-07-19 00:34:00,69.7,68.8,30.03,ENE,74,0.0,1.0,97,0.00,,,0.00,Wunderground v.1.15,2013-07-19 04:34:00,
2013-07-19 00:38:00,69.7,68.8,30.03,ENE,74,0.0,4.0,97,0.00,,,0.00,Wunderground v.1.15,2013-07-19 04:38:00,
2013-07-19 00:39:00,69.7,68.8,30.03,ENE,74,0.0,4.0,97,0.00,,,0.00,Wunderground v.1.15,2013-07-19 04:39:00,
2013-07-19 00:43:00,69.7,69.1,30.03,ENE,74,1.0,2.0,98,0.00,,,0.00,Wunderground v.1.15,2013-07-19 04:43:00,
2013-07-19 00:44:00,69.8,69.2,30.03,ENE,74,1.0,2.0,98,0.00,,,0.00,Wunderground v.1.15,2013-07-19 04:44:00,
2013-07-19 00:45:00,69.7,69.1,30.03,ENE,74,0.0,2.0,98,0.00,,,0.00,Wunderground v.1.15,2013-07-19 04:45:00,
2013-07-19 00:48:00,69.7,68.8,30.03,ENE,74,0.0,2.0,97,0.00,,,0.00,Wunderground v.1.15,2013-07-19 04:48:00,
2013-07-19 00:49:00,69.7,68.8,30.03,ENE,74,0.0,2.0,97,0.00,,,0.00,Wunderground v.1.15,2013-07-19 04:49:00,
2013-07-19 00:50:00,69.7,68.8,30.03,ENE,74,0.0,1.0,97,0.00,,,0.00,Wunderground v.1.15,2013-07-19 04:50:00,
2013-07-19 00:53:00,69.6,68.7,30.03,ENE,68,0.0,-999.0,97,0.00,,,0.01,Wunderground v.1.15,2013-07-19 04:53:00,
2013-07-19 00:54:00,69.7,68.8,30.03,ENE,74,0.0,1.0,97,0.00,,,0.00,Wunderground v.1.15,2013-07-19 04:54:00,
2013-07-19 00:55:00,69.6,68.7,30.03,ENE,74,0.0,1.0,97,0.00,,,0.00,Wunderground v.1.15,2013-07-19 04:55:00,
2013-07-19 00:56:00,69.6,68.7,30.03,ENE,74,0.0,1.0,97,0.00,,,0.00,Wunderground v.1.15,2013-07-19 04:56:00,
2013-07-19 00:58:00,69.7,68.8,30.03,N/A,-737280,0.0,-999.0,97,0.00,,,0.01,Wunderground v.1.15,2013-07-19 04:58:00,
2013-07-19 00:59:00,69.7,68.8,30.03,ENE,74,0.0,1.0,97,0.00,,,0.00,Wunderground v.1.15,2013-07-19 04:59:00,
2013-07-19 01:00:00,69.7,68.8,30.03,ENE,74,0.0,0.0,97,0.00,,,0.00,Wunderground v.1.15,2013-07-19 05:00:00,
2013-07-19 01:01:00,69.7,68.8,30.03,ENE,74,0.0,0.0,97,0.00,,,0.00,Wunderground v.1.15,2013-07-19 05:01:00,
2013-07-19 01:03:00,69.8,69.2,30.03,ENE,68,0.0,-999.0,98,0.00,,,0.01,Wunderground v.1.15,2013-07-19 05:03:00,
2013-07-19 01:04:00,69.7,69.1,30.03,ENE,74,1.0,2.0,98,0.00,,,0.00,Wunderground v.1.15,2013-07-19 05:04:00,
2013-07-19 01:05:00,69.8,69.2,30.03,ENE,74,0.0,2.0,98,0.00,,,0.00,Wunderground v.1.15,2013-07-19 05:05:00,
2013-07-19 01:06:00,69.8,69.2,30.03,ENE,74,0.0,2.0,98,0.00,,,0.00,Wunderground v.1.15,2013-07-19 05:06:00,
2013-07-19 01:07:00,69.8,69.2,30.03,ENE,74,0.0,2.0,98,0.00,,,0.00,Wunderground v.1.15,2013-07-19 05:07:00,
2013-07-19 01:08:00,69.9,69.3,30.03,ENE,68,0.0,-999.0,98,0.00,,,0.01,Wunderground v.1.15,2013-07-19 05:08:00,
2013-07-19 01:09:00,69.8,69.2,30.03,ENE,74,1.0,2.0,98,0.00,,,0.00,Wunderground v.1.15,2013-07-19 05:09:00,
2013-07-19 01:10:00,69.8,69.2,30.03,ENE,74,1.0,1.0,98,0.00,,,0.00,Wunderground v.1.15,2013-07-19 05:10:00,
2013-07-19 01:11:00,69.9,69.3,30.03,ENE,74,1.0,2.0,98,0.00,,,0.00,Wunderground v.1.15,2013-07-19 05:11:00,
2013-07-19 01:12:00,69.9,69.3,30.03,ENE,74,0.0,2.0,98,0.00,,,0.00,Wunderground v.1.15,2013-07-19 05:12:00,
2013-07-19 01:13:00,70.0,69.4,30.03,ENE,68,1.0,-999.0,98,0.00,,,0.01,Wunderground v.1.15,2013-07-19 05:13:00,
2013-07-19 01:14:00,70.0,69.4,30.03,ENE,74,1.0,2.0,98,0.00,,,0.00,Wunderground v.1.15,2013-07-19 05:14:00,
2013-07-19 01:15:00,70.0,69.4,30.03,ENE,74,1.0,2.0,98,0.00,,,0.00,Wunderground v.1.15,2013-07-19 05:15:00,
2013-07-19 01:16:00,70.0,69.4,30.03,ENE,74,1.0,2.0,98,0.00,,,0.00,Wunderground v.1.15,2013-07-19 05:16:00,
2013-07-19 01:17:00,70.0,69.4,30.02,ENE,74,0.0,2.0,98,0.00,,,0.00,Wunderground v.1.15,2013-07-19 05:17:00,
2013-07-19 01:18:00,70.1,69.5,30.02,ENE,68,1.0,-999.0,98,0.00,,,0.01,Wunderground v.1.15,2013-07-19 05:18:00,
2013-07-19 01:20:00,70.1,69.5,30.02,ENE,74,1.0,1.0,98,0.00,,,0.00,Wunderground v.1.15,2013-07-19 05:20:00,
2013-07-19 01:21:00,70.1,69.5,30.02,ENE,74,1.0,2.0,98,0.00,,,0.00,Wunderground v.1.15,2013-07-19 05:21:00,
2013-07-19 01:22:00,70.1,69.5,30.03,ENE,74,2.0,2.0,98,0.00,,,0.00,Wunderground v.1.15,2013-07-19 05:22:00,
2013-07-19 01:23:00,70.2,69.6,30.02,ENE,74,0.0,2.0,98,0.00,,,0.00,Wunderground v.1.15,2013-07-19 05:23:00,
2013-07-19 01:25:00,70.2,69.6,30.03,ENE,74,1.0,2.0,98,0.00,,,0.00,Wunderground v.1.15,2013-07-19 05:25:00,
2013-07-19 01:26:00,70.3,69.7,30.03,ENE,74,0.0,2.0,98,0.00,,,0.00,Wunderground v.1.15,2013-07-19 05:26:00,
2013-07-19 01:27:00,70.3,69.7,30.02,ENE,74,1.0,2.0,98,0.00,,,0.00,Wunderground v.1.15,2013-07-19 05:27:00,
2013-07-19 01:28:00,70.4,69.8,30.02,ENE,74,0.0,2.0,98,0.00,,,0.00,Wunderground v.1.15,2013-07-19 05:28:00,
2013-07-19 01:30:00,70.4,69.8,30.02,ENE,74,0.0,1.0,98,0.00,,,0.00,Wunderground v.1.15,2013-07-19 05:30:00,
2013-07-19 01:31:00,70.4,69.8,30.02,ENE,74,1.0,1.0,98,0.00,,,0.00,Wunderground v.1.15,2013-07-19 05:31:00,
2013-07-19 01:32:00,70.5,69.9,30.02,ENE,74,2.0,2.0,98,0.00,,,0.00,Wunderground v.1.15,2013-07-19 05:32:00,
2013-07-19 01:33:00,70.8,70.2,30.02,ENE,68,1.0,-999.0,98,0.00,,,0.01,Wunderground v.1.15,2013-07-19 05:33:00,
2013-07-19 01:34:00,70.6,70.0,30.02,ENE,74,1.0,2.0,98,0.00,,,0.00,Wunderground v.1.15,2013-07-19 05:34:00,
2013-07-19 01:35:00,70.7,70.1,30.02,ENE,74,1.0,2.0,98,0.00,,,0.00,Wunderground v.1.15,2013-07-19 05:35:00,
2013-07-19 01:36:00,70.8,70.2,30.02,ENE,74,1.0,2.0,98,0.00,,,0.00,Wunderground v.1.15,2013-07-19 05:36:00,
2013-07-19 01:38:00,70.9,70.3,30.02,ENE,74,1.0,2.0,98,0.00,,,0.00,Wunderground v.1.15,2013-07-19 05:38:00,
2013-07-19 01:40:00,71.0,70.4,30.02,ENE,74,1.0,1.0,98,0.00,,,0.00,Wunderground v.1.15,2013-07-19 05:40:00,
2013-07-19 01:41:00,71.1,70.5,30.02,ENE,74,0.0,1.0,98,0.00,,,0.00,Wunderground v.1.15,2013-07-19 05:41:00,
2013-07-19 01:42:00,71.2,70.6,30.01,ENE,74,0.0,1.0,98,0.00,,,0.00,Wunderground v.1.15,2013-07-19 05:42:00,
2013-07-19 01:43:00,71.2,70.6,30.02,ENE,74,1.0,2.0,98,0.00,,,0.00,Wunderground v.1.15,2013-07-19 05:43:00,
2013-07-19 01:45:00,71.2,70.6,30.02,ENE,74,0.0,2.0,98,0.00,,,0.00,Wunderground v.1.15,2013-07-19 05:45:00,
2013-07-19 01:47:00,71.3,70.7,30.02,ENE,74,2.0,2.0,98,0.00,,,0.00,Wunderground v.1.15,2013-07-19 05:47:00,
2013-07-19 01:48:00,71.3,70.7,30.02,ENE,74,1.0,2.0,98,0.00,,,0.00,Wunderground v.1.15,2013-07-19 05:48:00,
2013-07-19 01:50:00,71.5,70.9,30.02,ENE,74,0.0,1.0,98,0.00,,,0.01,Wunderground v.1.15,2013-07-19 05:50:00,
2013-07-19 01:52:00,71.5,70.9,30.02,ENE,74,0.0,1.0,98,0.00,,,0.01,Wunderground v.1.15,2013-07-19 05:52:00,
2013-07-19 01:53:00,71.6,71.0,30.01,ENE,74,1.0,1.0,98,0.00,,,0.01,Wunderground v.1.15,2013-07-19 05:53:00,
2013-07-19 01:55:00,71.6,71.0,30.01,ENE,74,0.0,1.0,98,0.00,,,0.01,Wunderground v.1.15,2013-07-19 05:55:00,
2013-07-19 01:56:00,71.6,71.0,30.01,ENE,74,0.0,1.0,98,0.00,,,0.01,Wunderground v.1.15,2013-07-19 05:56:00,
2013-07-19 01:57:00,71.6,71.0,30.01,ENE,74,1.0,1.0,98,0.00,,,0.01,Wunderground v.1.15,2013-07-19 05:57:00,
2013-07-19 01:58:00,71.6,71.0,30.01,ENE,68,2.0,-999.0,98,0.01,,,0.01,Wunderground v.1.15,2013-07-19 05:58:00,
2013-07-19 01:59:00,71.6,71.0,30.01,ENE,74,0.0,1.0,98,0.00,,,0.01,Wunderground v.1.15,2013-07-19 05:59:00,
2013-07-19 02:00:00,71.6,71.0,30.01,ENE,74,2.0,2.0,98,0.00,,,0.01,Wunderground v.1.15,2013-07-19 06:00:00,
2013-07-19 02:01:00,71.7,71.1,30.01,ENE,74,2.0,3.0,98,0.00,,,0.01,Wunderground v.1.15,2013-07-19 06:01:00,
2013-07-19 02:02:00,71.6,71.0,30.01,ENE,74,0.0,3.0,98,0.00,,,0.01,Wunderground v.1.15,2013-07-19 06:02:00,
2013-07-19 02:03:00,71.8,71.2,30.01,North,0,0.0,-999.0,98,0.01,,,0.01,Wunderground v.1.15,2013-07-19 06:03:00,
2013-07-19 02:04:00,71.7,71.1,30.01,NNW,332,3.0,4.0,98,0.00,,,0.01,Wunderground v.1.15,2013-07-19 06:04:00,
2013-07-19 02:06:00,71.7,71.1,30.01,North,11,1.0,4.0,98,0.00,,,0.01,Wunderground v.1.15,2013-07-19 06:06:00,
2013-07-19 02:07:00,71.8,71.2,30.01,North,11,1.0,4.0,98,0.00,,,0.01,Wunderground v.1.15,2013-07-19 06:07:00,
2013-07-19 02:08:00,71.9,71.3,30.01,North,0,1.0,-999.0,98,0.01,,,0.01,Wunderground v.1.15,2013-07-19 06:08:00,
2013-07-19 02:09:00,71.9,71.3,30.01,North,11,1.0,4.0,98,0.00,,,0.01,Wunderground v.1.15,2013-07-19 06:09:00,
2013-07-19 02:10:00,71.9,71.3,30.01,North,11,2.0,2.0,98,0.00,,,0.01,Wunderground v.1.15,2013-07-19 06:10:00,
2013-07-19 02:11:00,71.9,71.3,30.01,North,11,0.0,2.0,98,0.00,,,0.01,Wunderground v.1.15,2013-07-19 06:11:00,
2013-07-19 02:12:00,71.9,71.3,30.01,North,11,2.0,2.0,98,0.00,,,0.01,Wunderground v.1.15,2013-07-19 06:12:00,
2013-07-19 02:13:00,71.9,71.3,30.01,North,0,0.0,-999.0,98,0.01,,,0.01,Wunderground v.1.15,2013-07-19 06:13:00,
2013-07-19 02:15:00,71.9,71.3,30.01,North,11,1.0,2.0,98,0.00,,,0.01,Wunderground v.1.15,2013-07-19 06:15:00,
2013-07-19 02:16:00,71.9,71.3,30.01,North,11,0.0,2.0,98,0.00,,,0.01,Wunderground v.1.15,2013-07-19 06:16:00,
2013-07-19 02:17:00,71.9,71.3,30.01,North,11,0.0,2.0,98,0.00,,,0.01,Wunderground v.1.15,2013-07-19 06:17:00,
2013-07-19 02:18:00,71.9,71.0,30.01,NNE,23,0.0,-999.0,97,0.01,,,0.01,Wunderground v.1.15,2013-07-19 06:18:00,
2013-07-19 02:20:00,71.9,71.0,30.01,North,11,3.0,3.0,97,0.00,,,0.01,Wunderground v.1.15,2013-07-19 06:20:00,
2013-07-19 02:21:00,71.9,71.0,30.01,NNE,15,0.0,3.0,97,0.00,,,0.01,Wunderground v.1.15,2013-07-19 06:21:00,
2013-07-19 02:22:00,71.9,71.0,30.01,NNE,15,2.0,3.0,97,0.00,,,0.01,Wunderground v.1.15,2013-07-19 06:22:00,
2013-07-19 02:23:00,72.0,71.1,30.01,NNE,23,1.0,-999.0,97,0.01,,,0.01,Wunderground v.1.15,2013-07-19 06:23:00,
2013-07-19 02:25:00,72.0,71.1,30.01,NNE,15,1.0,3.0,97,0.00,,,0.01,Wunderground v.1.15,2013-07-19 06:25:00,
2013-07-19 02:26:00,72.0,71.1,30.01,NNE,15,2.0,3.0,97,0.00,,,0.01,Wunderground v.1.15,2013-07-19 06:26:00,
2013-07-19 02:27:00,72.0,71.1,30.01,NNE,15,1.0,3.0,97,0.00,,,0.01,Wunderground v.1.15,2013-07-19 06:27:00,
2013-07-19 02:28:00,72.0,71.1,30.01,NNE,15,2.0,3.0,97,0.00,,,0.01,Wunderground v.1.15,2013-07-19 06:28:00,
2013-07-19 02:30:00,72.0,71.1,30.01,NNE,15,1.0,2.0,97,0.00,,,0.01,Wunderground v.1.15,2013-07-19 06:30:00,
2013-07-19 02:31:00,71.9,71.0,30.01,NNE,15,1.0,2.0,97,0.00,,,0.01,Wunderground v.1.15,2013-07-19 06:31:00,
2013-07-19 02:33:00,71.9,71.0,30.01,NNE,15,1.0,2.0,97,0.00,,,0.01,Wunderground v.1.15,2013-07-19 06:33:00,
2013-07-19 02:35:00,71.9,71.0,30.00,NNE,15,0.0,3.0,97,0.00,,,0.01,Wunderground v.1.15,2013-07-19 06:35:00,
2013-07-19 02:36:00,71.9,71.0,30.00,NNE,15,1.0,3.0,97,0.00,,,0.01,Wunderground v.1.15,2013-07-19 06:36:00,
2013-07-19 02:38:00,72.0,71.1,30.00,ESE,122,2.0,3.0,97,0.00,,,0.01,Wunderground v.1.15,2013-07-19 06:38:00,
2013-07-19 02:41:00,72.1,71.2,30.00,South,184,2.0,3.0,97,0.00,,,0.01,Wunderground v.1.15,2013-07-19 06:41:00,
2013-07-19 02:43:00,72.2,71.3,30.01,South,184,0.0,3.0,97,0.00,,,0.01,Wunderground v.1.15,2013-07-19 06:43:00,
2013-07-19 02:44:00,72.3,71.4,30.01,South,184,1.0,3.0,97,0.00,,,0.01,Wunderground v.1.15,2013-07-19 06:44:00,
2013-07-19 02:46:00,72.4,71.5,30.01,South,172,1.0,4.0,97,0.00,,,0.01,Wunderground v.1.15,2013-07-19 06:46:00,
2013-07-19 02:48:00,72.7,71.8,30.01,SSE,166,2.0,6.0,97,0.00,,,0.01,Wunderground v.1.15,2013-07-19 06:48:00,
2013-07-19 02:49:00,72.8,71.9,30.01,SSE,165,0.0,6.0,97,0.00,,,0.01,Wunderground v.1.15,2013-07-19 06:49:00,
2013-07-19 02:51:00,73.0,71.8,30.01,SSE,165,3.0,3.0,96,0.00,,,0.01,Wunderground v.1.15,2013-07-19 06:51:00,
2013-07-19 02:53:00,73.1,71.6,30.01,SSE,166,0.0,3.0,95,0.00,,,0.01,Wunderground v.1.15,2013-07-19 06:53:00,
2013-07-19 02:54:00,73.1,71.6,30.01,SSE,166,0.0,3.0,95,0.00,,,0.01,Wunderground v.1.15,2013-07-19 06:54:00,
2013-07-19 02:55:00,73.0,71.5,30.01,SSE,165,0.0,3.0,95,0.00,,,0.01,Wunderground v.1.15,2013-07-19 06:55:00,
2013-07-19 02:56:00,73.0,71.5,30.01,SSE,166,0.0,3.0,95,0.00,,,0.01,Wunderground v.1.15,2013-07-19 06:56:00,
2013-07-19 02:57:00,72.9,71.4,30.01,SSE,166,0.0,3.0,95,0.00,,,0.01,Wunderground v.1.15,2013-07-19 06:57:00,
2013-07-19 02:58:00,72.9,71.4,30.01,SSE,166,0.0,3.0,95,0.00,,,0.01,Wunderground v.1.15,2013-07-19 06:58:00,
2013-07-19 02:59:00,72.9,71.4,30.01,SSE,166,0.0,3.0,95,0.00,,,0.01,Wunderground v.1.15,2013-07-19 06:59:00,
2013-07-19 03:01:00,72.8,71.3,30.01,SSE,165,1.0,2.0,95,0.00,,,0.01,Wunderground v.1.15,2013-07-19 07:01:00,
2013-07-19 03:02:00,72.7,71.2,30.00,SSE,165,0.0,2.0,95,0.00,,,0.01,Wunderground v.1.15,2013-07-19 07:02:00,
2013-07-19 03:03:00,72.6,71.1,30.00,SSE,158,1.0,-999.0,95,0.00,,,0.01,Wunderground v.1.15,2013-07-19 07:03:00,
2013-07-19 03:04:00,72.6,71.1,30.00,SSE,166,0.0,2.0,95,0.00,,,0.01,Wunderground v.1.15,2013-07-19 07:04:00,
2013-07-19 03:06:00,72.6,71.1,30.00,SSE,160,2.0,5.0,95,0.00,,,0.01,Wunderground v.1.15,2013-07-19 07:06:00,
2013-07-19 03:07:00,72.6,71.1,30.00,SSE,160,1.0,5.0,95,0.00,,,0.01,Wunderground v.1.15,2013-07-19 07:07:00,
2013-07-19 03:08:00,72.6,71.1,30.00,SSE,160,1.0,5.0,95,0.00,,,0.01,Wunderground v.1.15,2013-07-19 07:08:00,
2013-07-19 03:09:00,72.6,71.1,30.00,ESE,107,2.0,5.0,95,0.00,,,0.01,Wunderground v.1.15,2013-07-19 07:09:00,
2013-07-19 03:11:00,72.6,71.1,30.00,SSE,159,0.0,5.0,95,0.00,,,0.01,Wunderground v.1.15,2013-07-19 07:11:00,
2013-07-19 03:13:00,72.7,71.2,30.00,NE,35,1.0,5.0,95,0.00,,,0.01,Wunderground v.1.15,2013-07-19 07:13:00,
2013-07-19 03:14:00,72.9,71.4,30.00,NE,35,2.0,5.0,95,0.00,,,0.01,Wunderground v.1.15,2013-07-19 07:14:00,
2013-07-19 03:15:00,73.0,71.5,30.00,NE,35,2.0,5.0,95,0.00,,,0.01,Wunderground v.1.15,2013-07-19 07:15:00,
2013-07-19 03:16:00,73.1,71.6,30.00,NE,34,1.0,5.0,95,0.00,,,0.01,Wunderground v.1.15,2013-07-19 07:16:00,
2013-07-19 03:18:00,73.2,71.7,30.00,South,182,3.0,5.0,95,0.00,,,0.01,Wunderground v.1.15,2013-07-19 07:18:00,
2013-07-19 03:19:00,73.3,71.5,30.01,South,190,3.0,5.0,94,0.00,,,0.01,Wunderground v.1.15,2013-07-19 07:19:00,
2013-07-19 03:21:00,73.7,71.9,30.00,South,190,0.0,3.0,94,0.00,,,0.01,Wunderground v.1.15,2013-07-19 07:21:00,
2013-07-19 03:22:00,73.8,72.0,30.00,South,190,2.0,3.0,94,0.00,,,0.01,Wunderground v.1.15,2013-07-19 07:22:00,
2013-07-19 03:23:00,74.0,71.8,30.00,South,186,1.0,7.0,93,0.00,,,0.01,Wunderground v.1.15,2013-07-19 07:23:00,
2013-07-19 03:24:00,74.1,71.9,30.00,South,186,1.0,7.0,93,0.00,,,0.01,Wunderground v.1.15,2013-07-19 07:24:00,
2013-07-19 03:26:00,74.1,71.9,30.00,SSW,201,3.0,7.0,93,0.00,,,0.01,Wunderground v.1.15,2013-07-19 07:26:00,
2013-07-19 03:27:00,74.1,71.6,30.00,SSW,200,2.0,7.0,92,0.00,,,0.01,Wunderground v.1.15,2013-07-19 07:27:00,
2013-07-19 03:28:00,74.3,71.8,30.00,SE,135,1.0,-999.0,92,0.00,,,0.01,Wunderground v.1.15,2013-07-19 07:28:00,
2013-07-19 03:29:00,74.2,71.7,30.01,SSW,207,2.0,7.0,92,0.00,,,0.01,Wunderground v.1.15,2013-07-19 07:29:00,
2013-07-19 03:30:00,74.2,71.7,30.01,SE,130,2.0,4.0,92,0.00,,,0.01,Wunderground v.1.15,2013-07-19 07:30:00,
2013-07-19 03:31:00,74.3,71.8,30.00,SE,130,2.0,4.0,92,0.00,,,0.01,Wunderground v.1.15,2013-07-19 07:31:00,
2013-07-19 03:32:00,74.3,71.8,30.00,SE,130,0.0,4.0,92,0.00,,,0.01,Wunderground v.1.15,2013-07-19 07:32:00,
2013-07-19 03:33:00,74.3,71.5,30.00,SE,135,1.0,-999.0,91,0.00,,,0.01,Wunderground v.1.15,2013-07-19 07:33:00,
2013-07-19 03:34:00,74.3,71.8,30.01,SE,130,0.0,4.0,92,0.00,,,0.01,Wunderground v.1.15,2013-07-19 07:34:00,
2013-07-19 03:35:00,74.3,71.8,30.00,SE,130,0.0,4.0,92,0.00,,,0.01,Wunderground v.1.15,2013-07-19 07:35:00,
2013-07-19 03:36:00,74.3,71.8,30.00,SE,130,1.0,4.0,92,0.00,,,0.01,Wunderground v.1.15,2013-07-19 07:36:00,
2013-07-19 03:37:00,74.3,71.5,30.00,SE,130,0.0,4.0,91,0.00,,,0.01,Wunderground v.1.15,2013-07-19 07:37:00,
2013-07-19 03:38:00,74.8,72.0,30.00,West,270,1.0,-999.0,91,0.00,,,0.01,Wunderground v.1.15,2013-07-19 07:38:00,
2013-07-19 03:39:00,74.7,71.6,30.00,West,276,0.0,4.0,90,0.00,,,0.01,Wunderground v.1.15,2013-07-19 07:39:00,
2013-07-19 03:40:00,74.8,72.0,30.00,West,277,0.0,1.0,91,0.00,,,0.01,Wunderground v.1.15,2013-07-19 07:40:00,
2013-07-19 03:41:00,74.8,72.0,30.00,West,277,0.0,1.0,91,0.00,,,0.01,Wunderground v.1.15,2013-07-19 07:41:00,
2013-07-19 03:42:00,74.8,72.0,30.00,West,277,1.0,2.0,91,0.00,,,0.01,Wunderground v.1.15,2013-07-19 07:42:00,
2013-07-19 03:43:00,74.8,72.0,30.00,WNW,293,1.0,-999.0,91,0.00,,,0.01,Wunderground v.1.15,2013-07-19 07:43:00,
2013-07-19 03:44:00,74.8,72.0,30.00,WNW,294,1.0,4.0,91,0.00,,,0.01,Wunderground v.1.15,2013-07-19 07:44:00,
2013-07-19 03:45:00,74.8,72.0,30.00,WNW,294,0.0,4.0,91,0.00,,,0.01,Wunderground v.1.15,2013-07-19 07:45:00,
2013-07-19 03:46:00,74.8,72.0,30.00,WNW,294,0.0,4.0,91,0.00,,,0.01,Wunderground v.1.15,2013-07-19 07:46:00,
2013-07-19 03:47:00,74.7,71.9,30.00,WNW,294,0.0,4.0,91,0.00,,,0.01,Wunderground v.1.15,2013-07-19 07:47:00,
2013-07-19 03:48:00,74.7,71.9,30.00,WNW,294,0.0,4.0,91,0.00,,,0.01,Wunderground v.1.15,2013-07-19 07:48:00,
2013-07-19 03:50:00,74.5,71.7,30.00,WNW,294,0.0,1.0,91,0.00,,,0.01,Wunderground v.1.15,2013-07-19 07:50:00,
2013-07-19 03:51:00,74.5,72.0,30.00,WNW,294,0.0,1.0,92,0.00,,,0.01,Wunderground v.1.15,2013-07-19 07:51:00,
2013-07-19 03:52:00,74.4,71.9,30.00,WNW,294,0.0,1.0,92,0.00,,,0.01,Wunderground v.1.15,2013-07-19 07:52:00,
2013-07-19 03:53:00,74.3,71.8,30.00,WNW,294,0.0,1.0,92,0.00,,,0.01,Wunderground v.1.15,2013-07-19 07:53:00,
2013-07-19 03:55:00,74.1,71.6,30.00,WNW,294,0.0,2.0,92,0.00,,,0.01,Wunderground v.1.15,2013-07-19 07:55:00,
2013-07-19 03:56:00,74.0,71.5,30.00,WNW,294,0.0,2.0,92,0.00,,,0.01,Wunderground v.1.15,2013-07-19 07:56:00,
2013-07-19 03:58:00,73.9,71.4,30.00,WNW,294,0.0,2.0,92,0.00,,,0.01,Wunderground v.1.15,2013-07-19 07:58:00,
2013-07-19 04:01:00,73.8,71.3,30.00,WNW,294,0.0,0.0,92,0.00,,,0.01,Wunderground v.1.15,2013-07-19 08:01:00,
2013-07-19 04:02:00,73.7,71.2,30.00,WNW,294,2.0,2.0,92,0.00,,,0.01,Wunderground v.1.15,2013-07-19 08:02:00,
2013-07-19 04:03:00,73.7,71.5,30.00,WNW,294,1.0,2.0,93,0.00,,,0.01,Wunderground v.1.15,2013-07-19 08:03:00,
2013-07-19 04:06:00,73.6,71.4,30.00,WNW,293,0.0,3.0,93,0.00,,,0.01,Wunderground v.1.15,2013-07-19 08:06:00,
2013-07-19 04:07:00,73.6,71.4,30.00,WNW,292,0.0,3.0,93,0.00,,,0.01,Wunderground v.1.15,2013-07-19 08:07:00,
2013-07-19 04:08:00,73.5,71.4,30.00,WNW,293,1.0,-999.0,93,0.00,,,0.01,Wunderground v.1.15,2013-07-19 08:08:00,
2013-07-19 04:09:00,73.5,71.4,30.00,WNW,293,2.0,3.0,93,0.00,,,0.01,Wunderground v.1.15,2013-07-19 08:09:00,
2013-07-19 04:12:00,73.6,71.4,30.00,WNW,293,2.0,2.0,93,0.00,,,0.01,Wunderground v.1.15,2013-07-19 08:12:00,
2013-07-19 04:13:00,73.6,71.4,30.00,WNW,292,1.0,2.0,93,0.00,,,0.01,Wunderground v.1.15,2013-07-19 08:13:00,
2013-07-19 04:14:00,73.6,71.4,30.01,WNW,293,0.0,2.0,93,0.00,,,0.01,Wunderground v.1.15,2013-07-19 08:14:00,
2013-07-19 04:18:00,73.6,71.4,30.01,SW,221,0.0,4.0,93,0.00,,,0.01,Wunderground v.1.15,2013-07-19 08:18:00,
2013-07-19 04:19:00,73.5,71.4,30.00,SW,221,0.0,4.0,93,0.00,,,0.01,Wunderground v.1.15,2013-07-19 08:19:00,
2013-07-19 04:23:00,73.5,71.0,30.00,SW,215,0.0,3.0,92,0.00,,,0.01,Wunderground v.1.15,2013-07-19 08:23:00,
2013-07-19 04:25:00,73.6,71.4,30.00,SW,215,1.0,3.0,93,0.00,,,0.01,Wunderground v.1.15,2013-07-19 08:25:00,
2013-07-19 04:28:00,73.6,71.1,30.00,SW,217,3.0,5.0,92,0.00,,,0.01,Wunderground v.1.15,2013-07-19 08:28:00,
2013-07-19 04:30:00,73.8,71.3,30.01,SW,217,1.0,2.0,92,0.00,,,0.01,Wunderground v.1.15,2013-07-19 08:30:00,
2013-07-19 04:33:00,73.9,71.4,30.01,SW,216,1.0,5.0,92,0.00,,,0.01,Wunderground v.1.15,2013-07-19 08:33:00,
2013-07-19 04:34:00,73.9,71.4,30.01,SW,216,0.0,5.0,92,0.00,,,0.01,Wunderground v.1.15,2013-07-19 08:34:00,
2013-07-19 04:35:00,73.9,71.4,30.01,SW,216,0.0,5.0,92,0.00,,,0.01,Wunderground v.1.15,2013-07-19 08:35:00,
2013-07-19 04:38:00,73.9,71.4,30.00,SW,216,0.0,5.0,92,0.00,,,0.01,Wunderground v.1.15,2013-07-19 08:38:00,
2013-07-19 04:39:00,73.9,71.4,30.00,SW,215,0.0,5.0,92,0.00,,,0.01,Wunderground v.1.15,2013-07-19 08:39:00,
2013-07-19 04:40:00,73.8,71.0,30.01,SW,216,0.0,1.0,91,0.00,,,0.01,Wunderground v.1.15,2013-07-19 08:40:00,
2013-07-19 04:43:00,73.8,71.0,30.00,SW,225,2.0,-999.0,91,0.00,,,0.01,Wunderground v.1.15,2013-07-19 08:43:00,
2013-07-19 04:44:00,73.8,71.0,30.00,SW,216,0.0,2.0,91,0.00,,,0.01,Wunderground v.1.15,2013-07-19 08:44:00,
2013-07-19 04:45:00,73.8,71.0,30.00,SW,215,1.0,2.0,91,0.00,,,0.01,Wunderground v.1.15,2013-07-19 08:45:00,
2013-07-19 04:46:00,73.8,71.0,30.00,SW,216,0.0,2.0,91,0.00,,,0.01,Wunderground v.1.15,2013-07-19 08:46:00,
2013-07-19 04:48:00,73.7,70.9,30.00,SW,225,0.0,-999.0,91,0.00,,,0.01,Wunderground v.1.15,2013-07-19 08:48:00,
2013-07-19 04:49:00,73.7,70.9,30.00,SW,217,0.0,3.0,91,0.00,,,0.01,Wunderground v.1.15,2013-07-19 08:49:00,
2013-07-19 04:50:00,73.8,71.0,30.00,SW,217,1.0,2.0,91,0.00,,,0.01,Wunderground v.1.15,2013-07-19 08:50:00,
2013-07-19 04:51:00,73.7,70.9,30.00,SW,218,1.0,2.0,91,0.00,,,0.01,Wunderground v.1.15,2013-07-19 08:51:00,
2013-07-19 04:53:00,73.9,71.1,30.00,SSW,203,0.0,-999.0,91,0.00,,,0.01,Wunderground v.1.15,2013-07-19 08:53:00,
2013-07-19 04:54:00,73.8,71.0,30.00,SSW,199,2.0,3.0,91,0.00,,,0.01,Wunderground v.1.15,2013-07-19 08:54:00,
2013-07-19 04:55:00,73.8,71.0,30.00,SSW,199,2.0,3.0,91,0.00,,,0.01,Wunderground v.1.15,2013-07-19 08:55:00,
2013-07-19 04:56:00,73.8,71.0,30.00,SSW,199,0.0,3.0,91,0.00,,,0.01,Wunderground v.1.15,2013-07-19 08:56:00,
2013-07-19 04:58:00,73.9,71.1,30.00,N/A,-737280,0.0,-999.0,91,0.00,,,0.01,Wunderground v.1.15,2013-07-19 08:58:00,
2013-07-19 04:59:00,73.9,71.1,30.00,SSW,199,1.0,1.0,91,0.00,,,0.01,Wunderground v.1.15,2013-07-19 08:59:00,
2013-07-19 05:00:00,73.9,71.1,30.00,SSW,199,2.0,2.0,91,0.00,,,0.01,Wunderground v.1.15,2013-07-19 09:00:00,
2013-07-19 05:01:00,73.9,71.1,30.00,SSW,199,0.0,2.0,91,0.00,,,0.01,Wunderground v.1.15,2013-07-19 09:01:00,
2013-07-19 05:03:00,73.8,71.0,30.00,N/A,-737280,0.0,-999.0,91,0.00,,,0.01,Wunderground v.1.15,2013-07-19 09:03:00,
2013-07-19 05:04:00,73.8,71.0,30.00,SSW,199,1.0,2.0,91,0.00,,,0.01,Wunderground v.1.15,2013-07-19 09:04:00,
2013-07-19 05:05:00,73.8,71.0,30.00,SSW,199,0.0,2.0,91,0.00,,,0.01,Wunderground v.1.15,2013-07-19 09:05:00,
2013-07-19 05:06:00,73.8,71.0,30.00,SSW,199,0.0,2.0,91,0.00,,,0.01,Wunderground v.1.15,2013-07-19 09:06:00,
2013-07-19 05:07:00,73.8,71.0,30.00,SSW,199,0.0,2.0,91,0.00,,,0.01,Wunderground v.1.15,2013-07-19 09:07:00,
2013-07-19 05:08:00,73.5,71.0,30.00,N/A,-737280,0.0,-999.0,92,0.00,,,0.01,Wunderground v.1.15,2013-07-19 09:08:00,
2013-07-19 05:10:00,73.6,71.1,30.00,SSW,199,0.0,0.0,92,0.00,,,0.01,Wunderground v.1.15,2013-07-19 09:10:00,
2013-07-19 05:11:00,73.6,71.1,30.00,SSW,199,0.0,0.0,92,0.00,,,0.01,Wunderground v.1.15,2013-07-19 09:11:00,
2013-07-19 05:12:00,73.5,71.0,30.00,SSW,199,0.0,0.0,92,0.00,,,0.01,Wunderground v.1.15,2013-07-19 09:12:00,
2013-07-19 05:13:00,73.2,70.7,30.00,SE,135,2.0,-999.0,92,0.00,,,0.01,Wunderground v.1.15,2013-07-19 09:13:00,
2013-07-19 05:15:00,73.3,70.8,30.00,SSW,198,0.0,2.0,92,0.00,,,0.01,Wunderground v.1.15,2013-07-19 09:15:00,
2013-07-19 05:16:00,73.3,70.5,30.00,SSW,198,2.0,2.0,91,0.00,,,0.01,Wunderground v.1.15,2013-07-19 09:16:00,
2013-07-19 05:17:00,73.3,70.8,30.00,SE,129,0.0,4.0,92,0.00,,,0.01,Wunderground v.1.15,2013-07-19 09:17:00,
2013-07-19 05:18:00,73.5,71.0,30.00,N/A,-737280,0.0,-999.0,92,0.00,,,0.01,Wunderground v.1.15,2013-07-19 09:18:00,
2013-07-19 05:21:00,73.3,70.8,30.00,SSE,161,0.0,5.0,92,0.00,,,0.01,Wunderground v.1.15,2013-07-19 09:21:00,
2013-07-19 05:22:00,73.5,70.7,30.00,SSE,162,0.0,5.0,91,0.00,,,0.01,Wunderground v.1.15,2013-07-19 09:22:00,
2013-07-19 05:23:00,73.5,71.0,30.00,SSE,158,0.0,-999.0,92,0.00,,,0.01,Wunderground v.1.15,2013-07-19 09:23:00,
2013-07-19 05:26:00,73.5,71.0,30.00,SSE,163,1.0,5.0,92,0.00,,,0.01,Wunderground v.1.15,2013-07-19 09:26:00,
2013-07-19 05:27:00,73.5,71.0,30.00,SSE,163,0.0,5.0,92,0.00,,,0.01,Wunderground v.1.15,2013-07-19 09:27:00,
2013-07-19 05:28:00,73.5,71.0,30.00,SSE,163,0.0,5.0,92,0.00,,,0.01,Wunderground v.1.15,2013-07-19 09:28:00,
2013-07-19 05:31:00,73.4,70.6,30.00,WSW,241,1.0,3.0,91,0.00,,,0.01,Wunderground v.1.15,2013-07-19 09:31:00,
2013-07-19 05:32:00,73.5,70.7,30.00,WSW,241,1.0,3.0,91,0.00,,,0.01,Wunderground v.1.15,2013-07-19 09:32:00,
2013-07-19 05:33:00,73.5,70.7,30.00,NNW,331,1.0,3.0,91,0.00,,,0.01,Wunderground v.1.15,2013-07-19 09:33:00,
2013-07-19 05:36:00,73.6,70.8,30.00,NNW,335,1.0,3.0,91,0.00,,,0.01,Wunderground v.1.15,2013-07-19 09:36:00,
2013-07-19 05:37:00,73.6,70.8,30.00,NNW,335,0.0,3.0,91,0.00,,,0.01,Wunderground v.1.15,2013-07-19 09:37:00,
2013-07-19 05:38:00,73.6,70.8,30.00,NNW,334,1.0,3.0,91,0.00,,,0.01,Wunderground v.1.15,2013-07-19 09:38:00,
2013-07-19 05:42:00,73.7,70.9,30.00,ENE,61,1.0,4.0,91,0.00,,,0.01,Wunderground v.1.15,2013-07-19 09:42:00,
2013-07-19 05:43:00,73.7,70.9,30.00,ENE,62,0.0,4.0,91,0.00,,,0.01,Wunderground v.1.15,2013-07-19 09:43:00,
2013-07-19 05:44:00,73.7,70.9,30.00,ESE,111,2.0,4.0,91,0.00,,,0.01,Wunderground v.1.15,2013-07-19 09:44:00,
2013-07-19 05:47:00,73.8,71.0,30.00,ESE,118,1.0,4.0,91,0.00,,,0.01,Wunderground v.1.15,2013-07-19 09:47:00,
2013-07-19 05:48:00,73.8,71.0,30.00,ESE,118,1.0,4.0,91,0.00,,,0.01,Wunderground v.1.15,2013-07-19 09:48:00,
2013-07-19 05:49:00,73.9,71.1,30.00,ESE,118,0.0,4.0,91,0.00,,,0.01,Wunderground v.1.15,2013-07-19 09:49:00,
2013-07-19 05:50:00,73.9,71.1,30.00,ESE,118,1.0,1.0,91,0.00,,,0.01,Wunderground v.1.15,2013-07-19 09:50:00,
2013-07-19 05:52:00,73.9,71.1,30.00,ESE,118,0.0,2.0,91,0.00,,,0.01,Wunderground v.1.15,2013-07-19 09:52:00,
2013-07-19 05:53:00,73.8,70.7,30.00,ESE,118,0.0,2.0,90,0.00,,,0.01,Wunderground v.1.15,2013-07-19 09:53:00,
2013-07-19 05:54:00,73.8,70.7,30.00,ESE,118,0.0,2.0,90,0.00,,,0.01,Wunderground v.1.15,2013-07-19 09:54:00,
2013-07-19 05:55:00,73.8,71.0,30.00,ESE,118,1.0,2.0,91,0.00,,,0.01,Wunderground v.1.15,2013-07-19 09:55:00,
2013-07-19 05:57:00,73.7,70.6,30.00,ESE,118,0.0,2.0,90,0.00,,,0.01,Wunderground v.1.15,2013-07-19 09:57:00,
2013-07-19 05:58:00,73.7,70.6,30.00,SW,225,2.0,-999.0,90,0.00,,,0.01,Wunderground v.1.15,2013-07-19 09:58:00,
2013-07-19 05:59:00,73.7,70.6,30.00,ESE,118,0.0,2.0,90,0.00,,,0.01,Wunderground v.1.15,2013-07-19 09:59:00,
2013-07-19 06:00:00,73.7,70.6,30.00,ESE,118,2.0,2.0,90,0.00,,,0.01,Wunderground v.1.15,2013-07-19 10:00:00,
2013-07-19 06:02:00,73.8,70.7,30.00,SW,217,0.0,4.0,90,0.00,,,0.01,Wunderground v.1.15,2013-07-19 10:02:00,
2013-07-19 06:03:00,73.8,70.7,30.00,SW,225,1.0,-999.0,90,0.00,,,0.01,Wunderground v.1.15,2013-07-19 10:03:00,
2013-07-19 06:04:00,73.9,70.8,30.00,SW,217,2.0,4.0,90,0.00,,,0.01,Wunderground v.1.15,2013-07-19 10:04:00,
2013-07-19 06:05:00,73.9,70.8,30.00,SW,218,2.0,4.0,90,0.00,,,0.01,Wunderground v.1.15,2013-07-19 10:05:00,
2013-07-19 06:06:00,73.8,70.7,30.00,SW,218,1.0,4.0,90,0.00,,,0.01,Wunderground v.1.15,2013-07-19 10:06:00,
2013-07-19 06:07:00,73.8,70.7,30.00,SW,218,0.0,4.0,90,0.00,,,0.01,Wunderground v.1.15,2013-07-19 10:07:00,
2013-07-19 06:08:00,73.5,70.7,30.00,SW,225,1.0,-999.0,91,0.00,,,0.01,Wunderground v.1.15,2013-07-19 10:08:00,
2013-07-19 06:09:00,73.7,70.6,30.00,SW,218,0.0,4.0,90,0.00,,,0.01,Wunderground v.1.15,2013-07-19 10:09:00,
2013-07-19 06:10:00,73.6,70.5,30.00,SW,218,0.0,1.0,90,0.00,,,0.01,Wunderground v.1.15,2013-07-19 10:10:00,
2013-07-19 06:11:00,73.5,70.7,30.00,SW,218,0.0,1.0,91,0.00,,,0.01,Wunderground v.1.15,2013-07-19 10:11:00,
2013-07-19 06:13:00,73.5,70.7,30.00,SW,218,1.0,2.0,91,0.00,,,0.01,Wunderground v.1.15,2013-07-19 10:13:00,
2013-07-19 06:14:00,73.4,70.6,30.00,SW,218,1.0,2.0,91,0.00,,,0.01,Wunderground v.1.15,2013-07-19 10:14:00,
2013-07-19 06:15:00,73.5,70.7,30.00,SW,218,0.0,2.0,91,0.00,,,0.01,Wunderground v.1.15,2013-07-19 10:15:00,
2013-07-19 06:16:00,73.4,70.6,30.00,SW,218,0.0,2.0,91,0.00,,,0.01,Wunderground v.1.15,2013-07-19 10:16:00,
2013-07-19 06:18:00,73.1,70.3,30.00,N/A,-737280,0.0,-999.0,91,0.00,,,0.01,Wunderground v.1.15,2013-07-19 10:18:00,
2013-07-19 06:19:00,73.3,70.5,30.00,SW,218,0.0,2.0,91,0.00,,,0.01,Wunderground v.1.15,2013-07-19 10:19:00,
2013-07-19 06:20:00,73.2,70.4,30.00,SW,218,0.0,0.0,91,0.00,,,0.01,Wunderground v.1.15,2013-07-19 10:20:00,
2013-07-19 06:21:00,73.1,70.3,30.00,SW,218,0.0,0.0,91,0.00,,,0.01,Wunderground v.1.15,2013-07-19 10:21:00,
2013-07-19 06:23:00,72.9,70.4,30.01,SW,225,0.0,-999.0,92,0.00,,,0.01,Wunderground v.1.15,2013-07-19 10:23:00,
2013-07-19 06:24:00,73.0,70.5,30.01,SW,218,1.0,1.0,92,0.00,,,0.01,Wunderground v.1.15,2013-07-19 10:24:00,
2013-07-19 06:25:00,73.0,70.5,30.01,SW,218,0.0,1.0,92,0.00,,,0.01,Wunderground v.1.15,2013-07-19 10:25:00,
2013-07-19 06:26:00,72.9,70.4,30.01,SW,218,0.0,1.0,92,0.00,,,0.01,Wunderground v.1.15,2013-07-19 10:26:00,
2013-07-19 06:28:00,72.6,70.1,30.01,SW,225,0.0,-999.0,92,0.00,,,0.01,Wunderground v.1.15,2013-07-19 10:28:00,
2013-07-19 06:29:00,72.8,70.3,30.01,SW,218,0.0,1.0,92,0.00,,,0.01,Wunderground v.1.15,2013-07-19 10:29:00,
2013-07-19 06:30:00,72.7,70.2,30.01,SW,218,0.0,1.0,92,0.00,,,0.01,Wunderground v.1.15,2013-07-19 10:30:00,
2013-07-19 06:31:00,72.6,70.1,30.01,SW,218,0.0,1.0,92,0.00,,,0.01,Wunderground v.1.15,2013-07-19 10:31:00,
2013-07-19 06:32:00,72.6,70.1,30.01,SW,218,1.0,1.0,92,0.00,,,0.01,Wunderground v.1.15,2013-07-19 10:32:00,
2013-07-19 06:33:00,72.3,70.2,30.01,N/A,-737280,0.0,-999.0,93,0.00,,,0.01,Wunderground v.1.15,2013-07-19 10:33:00,
2013-07-19 06:35:00,72.4,70.3,30.01,SW,218,0.0,1.0,93,0.00,,,0.01,Wunderground v.1.15,2013-07-19 10:35:00,
2013-07-19 06:36:00,72.4,70.3,30.01,SW,218,0.0,1.0,93,0.00,,,0.01,Wunderground v.1.15,2013-07-19 10:36:00,
2013-07-19 06:37:00,72.3,70.2,30.01,SW,218,0.0,1.0,93,0.00,,,0.01,Wunderground v.1.15,2013-07-19 10:37:00,
2013-07-19 06:38:00,72.0,69.9,30.01,N/A,-737280,0.0,-999.0,93,0.00,,,0.01,Wunderground v.1.15,2013-07-19 10:38:00,
2013-07-19 06:40:00,72.1,70.0,30.01,SW,218,0.0,0.0,93,0.00,,,0.01,Wunderground v.1.15,2013-07-19 10:40:00,
2013-07-19 06:41:00,72.1,70.0,30.01,SW,218,0.0,0.0,93,0.00,,,0.01,Wunderground v.1.15,2013-07-19 10:41:00,
2013-07-19 06:42:00,72.1,70.0,30.01,SW,218,0.0,0.0,93,0.00,,,0.01,Wunderground v.1.15,2013-07-19 10:42:00,
2013-07-19 06:43:00,71.8,69.7,30.01,N/A,-737280,0.0,-999.0,93,0.00,,,0.01,Wunderground v.1.15,2013-07-19 10:43:00,
2013-07-19 06:45:00,71.9,69.8,30.01,SW,218,0.0,1.0,93,0.00,,,0.01,Wunderground v.1.15,2013-07-19 10:45:00,
2013-07-19 06:46:00,71.9,69.8,30.01,SW,218,0.0,1.0,93,0.00,,,0.01,Wunderground v.1.15,2013-07-19 10:46:00,
2013-07-19 06:47:00,71.8,69.7,30.01,SW,218,0.0,1.0,93,0.00,,,0.01,Wunderground v.1.15,2013-07-19 10:47:00,
2013-07-19 06:48:00,71.7,69.6,30.01,SW,218,0.0,1.0,93,0.00,,,0.01,Wunderground v.1.15,2013-07-19 10:48:00,
2013-07-19 06:50:00,71.6,69.5,30.01,SW,218,0.0,0.0,93,0.00,,,0.01,Wunderground v.1.15,2013-07-19 10:50:00,
2013-07-19 06:51:00,71.5,69.4,30.01,SW,218,0.0,0.0,93,0.00,,,0.01,Wunderground v.1.15,2013-07-19 10:51:00,
2013-07-19 06:52:00,71.5,69.7,30.01,SW,218,0.0,0.0,94,0.00,,,0.01,Wunderground v.1.15,2013-07-19 10:52:00,
2013-07-19 06:53:00,71.4,69.6,30.01,SW,218,0.0,0.0,94,0.00,,,0.01,Wunderground v.1.15,2013-07-19 10:53:00,
2013-07-19 06:55:00,71.3,69.5,30.01,SW,218,0.0,1.0,94,0.00,,,0.01,Wunderground v.1.15,2013-07-19 10:55:00,
2013-07-19 06:56:00,71.3,69.5,30.01,SW,218,3.0,3.0,94,0.00,,,0.01,Wunderground v.1.15,2013-07-19 10:56:00,
2013-07-19 06:57:00,71.3,69.5,30.01,SW,218,1.0,3.0,94,0.00,,,0.01,Wunderground v.1.15,2013-07-19 10:57:00,
2013-07-19 06:58:00,71.2,69.7,30.01,N/A,-737280,0.0,-999.0,95,0.00,,,0.01,Wunderground v.1.15,2013-07-19 10:58:00,
2013-07-19 06:59:00,71.3,69.8,30.01,SW,218,0.0,3.0,95,0.00,,,0.01,Wunderground v.1.15,2013-07-19 10:59:00,
2013-07-19 07:00:00,71.2,69.7,30.01,SW,218,0.0,0.0,95,0.00,,,0.01,Wunderground v.1.15,2013-07-19 11:00:00,
2013-07-19 07:01:00,71.2,69.7,30.01,SW,218,0.0,0.0,95,0.00,,,0.01,Wunderground v.1.15,2013-07-19 11:01:00,
2013-07-19 07:02:00,71.2,69.7,30.01,SW,218,0.0,0.0,95,0.00,,,0.01,Wunderground v.1.15,2013-07-19 11:02:00,
2013-07-19 07:03:00,71.0,69.5,30.01,SW,225,0.0,-999.0,95,0.00,,,0.01,Wunderground v.1.15,2013-07-19 11:03:00,
2013-07-19 07:04:00,71.1,69.6,30.01,SW,218,0.0,0.0,95,0.00,,,0.01,Wunderground v.1.15,2013-07-19 11:04:00,
2013-07-19 07:06:00,71.0,69.5,30.01,SW,218,0.0,0.0,95,0.00,,,0.01,Wunderground v.1.15,2013-07-19 11:06:00,
2013-07-19 07:07:00,71.0,69.5,30.01,SW,218,0.0,1.0,95,0.00,,,0.01,Wunderground v.1.15,2013-07-19 11:07:00,
2013-07-19 07:08:00,71.0,69.5,30.01,SW,218,0.0,1.0,95,0.00,,,0.01,Wunderground v.1.15,2013-07-19 11:08:00,
2013-07-19 07:10:00,70.9,69.4,30.01,SW,218,1.0,2.0,95,0.00,,,0.01,Wunderground v.1.15,2013-07-19 11:10:00,
2013-07-19 07:11:00,70.9,69.4,30.01,SW,218,0.0,2.0,95,0.00,,,0.01,Wunderground v.1.15,2013-07-19 11:11:00,
2013-07-19 07:12:00,70.9,69.4,30.01,SW,218,3.0,3.0,95,0.00,,,0.01,Wunderground v.1.15,2013-07-19 11:12:00,
2013-07-19 07:13:00,70.9,69.4,30.01,SW,218,0.0,3.0,95,0.00,,,0.01,Wunderground v.1.15,2013-07-19 11:13:00,
2013-07-19 07:15:00,70.9,69.4,30.01,SW,218,0.0,3.0,95,0.00,,,0.01,Wunderground v.1.15,2013-07-19 11:15:00,
2013-07-19 07:16:00,70.9,69.4,30.01,SW,218,0.0,3.0,95,0.00,,,0.01,Wunderground v.1.15,2013-07-19 11:16:00,
2013-07-19 07:17:00,70.8,69.3,30.01,SW,218,0.0,3.0,95,0.00,,,0.01,Wunderground v.1.15,2013-07-19 11:17:00,
2013-07-19 07:18:00,70.8,69.3,30.01,SW,218,0.0,3.0,95,0.00,,,0.01,Wunderground v.1.15,2013-07-19 11:18:00,
2013-07-19 07:20:00,70.8,69.3,30.01,SW,218,1.0,1.0,95,0.00,,,0.01,Wunderground v.1.15,2013-07-19 11:20:00,
2013-07-19 07:23:00,70.8,69.6,30.02,N/A,-737280,0.0,-999.0,96,0.00,,,0.01,Wunderground v.1.15,2013-07-19 11:23:00,
2013-07-19 07:28:00,70.8,69.6,30.02,SW,225,0.0,-999.0,96,0.00,,,0.01,Wunderground v.1.15,2013-07-19 11:28:00,
2013-07-19 07:33:00,71.0,69.8,30.02,SW,225,0.0,-999.0,96,0.00,,,0.01,Wunderground v.1.15,2013-07-19 11:33:00,
2013-07-19 07:38:00,71.1,69.9,30.03,N/A,-737280,0.0,-999.0,96,0.00,,,0.01,Wunderground v.1.15,2013-07-19 11:38:00,
2013-07-19 07:43:00,71.3,70.1,30.03,N/A,-737280,0.0,-999.0,96,0.00,,,0.01,Wunderground v.1.15,2013-07-19 11:43:00,
2013-07-19 07:48:00,71.3,70.1,30.03,N/A,-737280,0.0,-999.0,96,0.00,,,0.01,Wunderground v.1.15,2013-07-19 11:48:00,
2013-07-19 07:57:00,71.6,70.7,30.03,SW,218,0.0,0.0,97,0.00,,,0.01,Wunderground v.1.15,2013-07-19 11:57:00,
2013-07-19 08:03:00,71.7,70.8,30.04,SW,218,0.0,0.0,97,0.00,,,0.01,Wunderground v.1.15,2013-07-19 12:03:00,
2013-07-19 08:04:00,71.8,70.9,30.04,SW,218,0.0,0.0,97,0.00,,,0.01,Wunderground v.1.15,2013-07-19 12:04:00,
2013-07-19 08:05:00,71.8,70.6,30.03,SW,218,0.0,0.0,96,0.00,,,0.01,Wunderground v.1.15,2013-07-19 12:05:00,
2013-07-19 08:08:00,71.9,70.7,30.04,SW,218,1.0,1.0,96,0.00,,,0.01,Wunderground v.1.15,2013-07-19 12:08:00,
2013-07-19 08:09:00,71.8,70.6,30.04,SW,218,0.0,1.0,96,0.00,,,0.01,Wunderground v.1.15,2013-07-19 12:09:00,
2013-07-19 08:10:00,71.9,70.7,30.04,SW,218,0.0,1.0,96,0.00,,,0.01,Wunderground v.1.15,2013-07-19 12:10:00,
2013-07-19 08:14:00,71.8,70.6,30.04,SW,218,0.0,1.0,96,0.00,,,0.01,Wunderground v.1.15,2013-07-19 12:14:00,
2013-07-19 08:15:00,71.8,70.6,30.04,SW,218,0.0,1.0,96,0.00,,,0.01,Wunderground v.1.15,2013-07-19 12:15:00,
2013-07-19 08:19:00,71.8,70.6,30.04,SW,218,0.0,0.0,96,0.00,,,0.01,Wunderground v.1.15,2013-07-19 12:19:00,
2013-07-19 08:20:00,71.9,70.7,30.04,SW,218,0.0,0.0,96,0.00,,,0.01,Wunderground v.1.15,2013-07-19 12:20:00,
2013-07-19 08:24:00,72.2,71.0,30.05,SW,218,0.0,0.0,96,0.00,,,0.01,Wunderground v.1.15,2013-07-19 12:24:00,
2013-07-19 08:26:00,72.3,71.4,30.05,SW,218,0.0,0.0,97,0.00,,,0.01,Wunderground v.1.15,2013-07-19 12:26:00,
2013-07-19 08:29:00,72.6,71.7,30.05,SW,218,0.0,0.0,97,0.00,,,0.01,Wunderground v.1.15,2013-07-19 12:29:00,
2013-07-19 08:31:00,72.8,71.6,30.05,SW,218,0.0,0.0,96,0.00,,,0.01,Wunderground v.1.15,2013-07-19 12:31:00,
2013-07-19 08:32:00,72.9,71.7,30.05,SW,218,0.0,0.0,96,0.00,,,0.01,Wunderground v.1.15,2013-07-19 12:32:00,
2013-07-19 08:34:00,73.0,71.8,30.04,SW,218,0.0,0.0,96,0.00,,,0.01,Wunderground v.1.15,2013-07-19 12:34:00,
2013-07-19 08:35:00,73.0,71.8,30.04,SW,218,0.0,0.0,96,0.00,,,0.01,Wunderground v.1.15,2013-07-19 12:35:00,
2013-07-19 08:36:00,73.1,71.6,30.05,SW,218,0.0,0.0,95,0.00,,,0.01,Wunderground v.1.15,2013-07-19 12:36:00,
2013-07-19 08:37:00,73.2,71.7,30.04,SW,218,2.0,2.0,95,0.00,,,0.01,Wunderground v.1.15,2013-07-19 12:37:00,
2013-07-19 08:39:00,73.3,71.8,30.04,SW,218,0.0,0.0,95,0.00,,,0.01,Wunderground v.1.15,2013-07-19 12:39:00,
2013-07-19 08:40:00,73.4,71.9,30.04,SW,218,0.0,1.0,95,0.00,,,0.01,Wunderground v.1.15,2013-07-19 12:40:00,
2013-07-19 08:41:00,73.4,71.9,30.04,SW,218,0.0,1.0,95,0.00,,,0.01,Wunderground v.1.15,2013-07-19 12:41:00,
2013-07-19 08:42:00,73.5,72.0,30.05,SW,218,0.0,1.0,95,0.00,,,0.01,Wunderground v.1.15,2013-07-19 12:42:00,
2013-07-19 08:43:00,73.5,72.0,30.05,SW,218,0.0,1.0,95,0.00,,,0.01,Wunderground v.1.15,2013-07-19 12:43:00,
2013-07-19 08:44:00,73.7,72.2,30.05,SW,218,0.0,1.0,95,0.00,,,0.01,Wunderground v.1.15,2013-07-19 12:44:00,
2013-07-19 08:45:00,73.7,72.2,30.05,SW,218,1.0,1.0,95,0.00,,,0.01,Wunderground v.1.15,2013-07-19 12:45:00,
2013-07-19 08:46:00,73.8,72.3,30.05,SW,218,2.0,2.0,95,0.00,,,0.01,Wunderground v.1.15,2013-07-19 12:46:00,
2013-07-19 08:48:00,73.8,72.0,30.05,SW,218,0.0,2.0,94,0.00,,,0.01,Wunderground v.1.15,2013-07-19 12:48:00,
2013-07-19 08:49:00,73.9,72.1,30.05,SW,218,0.0,0.0,94,0.00,,,0.01,Wunderground v.1.15,2013-07-19 12:49:00,
2013-07-19 08:50:00,74.0,72.2,30.05,SW,218,0.0,0.0,94,0.00,,,0.01,Wunderground v.1.15,2013-07-19 12:50:00,
2013-07-19 08:51:00,74.1,72.3,30.05,SW,218,0.0,0.0,94,0.00,,,0.01,Wunderground v.1.15,2013-07-19 12:51:00,
2013-07-19 08:53:00,74.2,72.4,30.05,SW,218,0.0,0.0,94,0.00,,,0.01,Wunderground v.1.15,2013-07-19 12:53:00,
2013-07-19 08:54:00,74.2,72.4,30.05,SW,218,0.0,1.0,94,0.00,,,0.01,Wunderground v.1.15,2013-07-19 12:54:00,
2013-07-19 08:55:00,74.2,72.4,30.04,SW,218,0.0,1.0,94,0.00,,,0.01,Wunderground v.1.15,2013-07-19 12:55:00,
2013-07-19 08:56:00,74.3,72.5,30.05,SW,218,0.0,1.0,94,0.00,,,0.01,Wunderground v.1.15,2013-07-19 12:56:00,
2013-07-19 08:57:00,74.4,72.6,30.05,SW,218,1.0,1.0,94,0.00,,,0.01,Wunderground v.1.15,2013-07-19 12:57:00,
2013-07-19 08:59:00,74.6,72.4,30.05,SW,218,1.0,1.0,93,0.00,,,0.01,Wunderground v.1.15,2013-07-19 12:59:00,
2013-07-19 09:00:00,74.7,72.5,30.05,SW,218,0.0,1.0,93,0.00,,,0.01,Wunderground v.1.15,2013-07-19 13:00:00,
2013-07-19 09:01:00,74.8,72.6,30.05,SW,218,0.0,1.0,93,0.00,,,0.01,Wunderground v.1.15,2013-07-19 13:01:00,
2013-07-19 09:02:00,74.9,72.7,30.05,SW,218,0.0,1.0,93,0.00,,,0.01,Wunderground v.1.15,2013-07-19 13:02:00,
2013-07-19 09:04:00,75.0,72.8,30.05,SW,218,0.0,1.0,93,0.00,,,0.01,Wunderground v.1.15,2013-07-19 13:04:00,
2013-07-19 09:05:00,75.2,73.0,30.05,SW,218,0.0,1.0,93,0.00,,,0.01,Wunderground v.1.15,2013-07-19 13:05:00,
2013-07-19 09:06:00,75.3,73.1,30.05,SW,218,1.0,1.0,93,0.00,,,0.01,Wunderground v.1.15,2013-07-19 13:06:00,
2013-07-19 09:07:00,75.4,73.2,30.05,SW,218,0.0,1.0,93,0.00,,,0.01,Wunderground v.1.15,2013-07-19 13:07:00,
2013-07-19 09:09:00,75.5,73.0,30.05,SW,218,1.0,2.0,92,0.00,,,0.01,Wunderground v.1.15,2013-07-19 13:09:00,
2013-07-19 09:10:00,75.7,73.2,30.05,SW,218,0.0,0.0,92,0.00,,,0.01,Wunderground v.1.15,2013-07-19 13:10:00,
2013-07-19 09:11:00,75.8,73.3,30.05,SW,218,0.0,2.0,92,0.00,,,0.01,Wunderground v.1.15,2013-07-19 13:11:00,
2013-07-19 09:12:00,75.9,73.1,30.05,SW,218,0.0,2.0,91,0.00,,,0.01,Wunderground v.1.15,2013-07-19 13:12:00,
2013-07-19 09:14:00,76.1,73.6,30.05,SW,218,0.0,2.0,92,0.00,,,0.01,Wunderground v.1.15,2013-07-19 13:14:00,
2013-07-19 09:16:00,76.2,73.4,30.05,SW,218,1.0,2.0,91,0.00,,,0.01,Wunderground v.1.15,2013-07-19 13:16:00,
2013-07-19 09:17:00,76.3,73.5,30.05,SW,218,0.0,2.0,91,0.00,,,0.01,Wunderground v.1.15,2013-07-19 13:17:00,
2013-07-19 09:20:00,76.5,73.3,30.05,SW,218,0.0,1.0,90,0.00,,,0.01,Wunderground v.1.15,2013-07-19 13:20:00,
2013-07-19 09:21:00,76.5,73.3,30.05,SW,218,0.0,1.0,90,0.00,,,0.01,Wunderground v.1.15,2013-07-19 13:21:00,
2013-07-19 09:22:00,76.6,73.4,30.05,SW,218,1.0,2.0,90,0.00,,,0.01,Wunderground v.1.15,2013-07-19 13:22:00,
2013-07-19 09:23:00,76.7,73.5,30.05,SW,218,1.0,2.0,90,0.00,,,0.01,Wunderground v.1.15,2013-07-19 13:23:00,
2013-07-19 09:26:00,76.9,73.7,30.05,SW,218,0.0,2.0,90,0.00,,,0.01,Wunderground v.1.15,2013-07-19 13:26:00,
2013-07-19 09:28:00,77.1,73.6,30.05,SW,218,1.0,2.0,89,0.00,,,0.01,Wunderground v.1.15,2013-07-19 13:28:00,
2013-07-19 09:31:00,77.4,74.2,30.05,SW,218,0.0,0.0,90,0.00,,,0.01,Wunderground v.1.15,2013-07-19 13:31:00,
2013-07-19 09:33:00,77.7,74.2,30.05,SW,218,0.0,1.0,89,0.00,,,0.01,Wunderground v.1.15,2013-07-19 13:33:00,
2013-07-19 09:36:00,78.0,74.5,30.05,SW,218,1.0,1.0,89,0.00,,,0.01,Wunderground v.1.15,2013-07-19 13:36:00,
2013-07-19 09:39:00,78.3,74.8,30.05,SW,223,2.0,2.0,89,0.00,,,0.01,Wunderground v.1.15,2013-07-19 13:39:00,
2013-07-19 09:41:00,78.6,75.1,30.05,WSW,248,1.0,3.0,89,0.00,,,0.01,Wunderground v.1.15,2013-07-19 13:41:00,
2013-07-19 09:42:00,78.7,75.2,30.05,WSW,248,0.0,3.0,89,0.00,,,0.01,Wunderground v.1.15,2013-07-19 13:42:00,
2013-07-19 09:44:00,78.7,75.2,30.05,WSW,248,0.0,3.0,89,0.00,,,0.01,Wunderground v.1.15,2013-07-19 13:44:00,
2013-07-19 09:46:00,79.0,75.1,30.05,WSW,248,1.0,3.0,88,0.00,,,0.01,Wunderground v.1.15,2013-07-19 13:46:00,
2013-07-19 09:47:00,79.2,75.3,30.05,WSW,248,0.0,3.0,88,0.00,,,0.01,Wunderground v.1.15,2013-07-19 13:47:00,
2013-07-19 09:49:00,79.4,75.5,30.05,WSW,248,1.0,3.0,88,0.00,,,0.01,Wunderground v.1.15,2013-07-19 13:49:00,
2013-07-19 09:51:00,79.5,74.9,30.05,WSW,248,0.0,2.0,86,0.00,,,0.01,Wunderground v.1.15,2013-07-19 13:51:00,
2013-07-19 09:52:00,79.6,75.4,30.05,WSW,248,1.0,2.0,87,0.00,,,0.01,Wunderground v.1.15,2013-07-19 13:52:00,
2013-07-19 09:53:00,79.6,75.4,30.05,WSW,248,2.0,2.0,87,0.00,,,0.01,Wunderground v.1.15,2013-07-19 13:53:00,
2013-07-19 09:54:00,79.6,75.4,30.05,WSW,248,1.0,2.0,87,0.00,,,0.01,Wunderground v.1.15,2013-07-19 13:54:00,
2013-07-19 09:55:00,79.6,75.0,30.05,WSW,248,0.0,2.0,86,0.00,,,0.01,Wunderground v.1.15,2013-07-19 13:55:00,
2013-07-19 09:57:00,79.6,75.4,30.05,WSW,248,0.0,2.0,87,0.00,,,0.01,Wunderground v.1.15,2013-07-19 13:57:00,
2013-07-19 09:58:00,79.8,75.9,30.05,WSW,248,2.0,2.0,88,0.00,,,0.01,Wunderground v.1.15,2013-07-19 13:58:00,
2013-07-19 10:00:00,80.0,75.8,30.05,WSW,248,2.0,2.0,87,0.00,,,0.01,Wunderground v.1.15,2013-07-19 14:00:00,
2013-07-19 10:02:00,80.2,75.3,30.05,WSW,248,0.0,2.0,85,0.00,,,0.01,Wunderground v.1.15,2013-07-19 14:02:00,
2013-07-19 10:03:00,80.2,75.6,30.05,WSW,248,1.0,2.0,86,0.00,,,0.01,Wunderground v.1.15,2013-07-19 14:03:00,
2013-07-19 10:05:00,80.3,75.4,30.05,WSW,248,0.0,2.0,85,0.00,,,0.01,Wunderground v.1.15,2013-07-19 14:05:00,
2013-07-19 10:07:00,80.3,75.4,30.05,WSW,248,0.0,2.0,85,0.00,,,0.01,Wunderground v.1.15,2013-07-19 14:07:00,
2013-07-19 10:08:00,80.3,75.4,30.05,WSW,248,0.0,2.0,85,0.00,,,0.01,Wunderground v.1.15,2013-07-19 14:08:00,
2013-07-19 10:10:00,80.3,75.0,30.05,WSW,248,2.0,2.0,84,0.00,,,0.01,Wunderground v.1.15,2013-07-19 14:10:00,
2013-07-19 10:12:00,80.3,75.7,30.05,WSW,248,0.0,2.0,86,0.00,,,0.01,Wunderground v.1.15,2013-07-19 14:12:00,
2013-07-19 10:13:00,80.2,75.6,30.05,WSW,248,2.0,2.0,86,0.00,,,0.01,Wunderground v.1.15,2013-07-19 14:13:00,
2013-07-19 10:14:00,80.2,75.6,30.05,WSW,248,0.0,2.0,86,0.00,,,0.01,Wunderground v.1.15,2013-07-19 14:14:00,
2013-07-19 10:15:00,80.2,75.3,30.05,WSW,248,0.0,2.0,85,0.00,,,0.01,Wunderground v.1.15,2013-07-19 14:15:00,
2013-07-19 10:18:00,80.2,75.3,30.05,WSW,248,1.0,2.0,85,0.00,,,0.01,Wunderground v.1.15,2013-07-19 14:18:00,
2013-07-19 10:19:00,80.1,74.8,30.05,WSW,248,3.0,3.0,84,0.00,,,0.01,Wunderground v.1.15,2013-07-19 14:19:00,
2013-07-19 10:20:00,80.1,75.5,30.05,WSW,248,1.0,1.0,86,0.00,,,0.01,Wunderground v.1.15,2013-07-19 14:20:00,
2013-07-19 10:23:00,80.2,75.3,30.05,WSW,248,0.0,1.0,85,0.00,,,0.01,Wunderground v.1.15,2013-07-19 14:23:00,
2013-07-19 10:24:00,80.2,75.3,30.05,WSW,248,0.0,1.0,85,0.00,,,0.01,Wunderground v.1.15,2013-07-19 14:24:00,
2013-07-19 10:25:00,80.4,75.8,30.05,WSW,248,1.0,1.0,86,0.00,,,0.01,Wunderground v.1.15,2013-07-19 14:25:00,
2013-07-19 10:26:00,80.5,75.9,30.05,WSW,248,1.0,2.0,86,0.00,,,0.01,Wunderground v.1.15,2013-07-19 14:26:00,
2013-07-19 10:28:00,80.6,75.7,30.05,WSW,248,0.0,2.0,85,0.00,,,0.01,Wunderground v.1.15,2013-07-19 14:28:00,
2013-07-19 10:29:00,80.6,75.3,30.05,WSW,248,0.0,2.0,84,0.00,,,0.01,Wunderground v.1.15,2013-07-19 14:29:00,
2013-07-19 10:30:00,80.7,75.4,30.05,WSW,248,0.0,1.0,84,0.00,,,0.01,Wunderground v.1.15,2013-07-19 14:30:00,
2013-07-19 10:32:00,80.7,75.4,30.05,WSW,248,0.0,1.0,84,0.00,,,0.01,Wunderground v.1.15,2013-07-19 14:32:00,
2013-07-19 10:33:00,80.8,75.5,30.05,WSW,248,0.0,1.0,84,0.00,,,0.01,Wunderground v.1.15,2013-07-19 14:33:00,
2013-07-19 10:34:00,80.8,75.9,30.05,WSW,248,0.0,1.0,85,0.00,,,0.01,Wunderground v.1.15,2013-07-19 14:34:00,
2013-07-19 10:35:00,80.8,75.9,30.05,WSW,248,1.0,2.0,85,0.00,,,0.01,Wunderground v.1.15,2013-07-19 14:35:00,
2013-07-19 10:36:00,80.7,75.1,30.05,WSW,248,2.0,2.0,83,0.00,,,0.01,Wunderground v.1.15,2013-07-19 14:36:00,
2013-07-19 10:37:00,80.7,75.1,30.05,WSW,248,1.0,3.0,83,0.00,,,0.01,Wunderground v.1.15,2013-07-19 14:37:00,
2013-07-19 10:38:00,80.8,75.2,30.05,WSW,248,2.0,3.0,83,0.00,,,0.01,Wunderground v.1.15,2013-07-19 14:38:00,
2013-07-19 10:39:00,80.8,75.2,30.05,WSW,248,1.0,3.0,83,0.00,,,0.01,Wunderground v.1.15,2013-07-19 14:39:00,
2013-07-19 10:40:00,80.9,75.2,30.05,WSW,248,0.0,1.0,83,0.00,,,0.01,Wunderground v.1.15,2013-07-19 14:40:00,
2013-07-19 10:41:00,80.9,76.0,30.05,WSW,248,0.0,1.0,85,0.00,,,0.01,Wunderground v.1.15,2013-07-19 14:41:00,
2013-07-19 10:42:00,80.9,75.6,30.05,WSW,248,0.0,1.0,84,0.00,,,0.01,Wunderground v.1.15,2013-07-19 14:42:00,
2013-07-19 10:43:00,81.0,75.7,30.05,WSW,248,0.0,1.0,84,0.00,,,0.01,Wunderground v.1.15,2013-07-19 14:43:00,
2013-07-19 10:44:00,81.1,75.8,30.05,WSW,248,0.0,2.0,84,0.00,,,0.01,Wunderground v.1.15,2013-07-19 14:44:00,
2013-07-19 10:45:00,81.1,75.8,30.05,WSW,248,0.0,2.0,84,0.00,,,0.01,Wunderground v.1.15,2013-07-19 14:45:00,
2013-07-19 10:47:00,81.2,75.9,30.05,WSW,248,1.0,2.0,84,0.00,,,0.01,Wunderground v.1.15,2013-07-19 14:47:00,
2013-07-19 10:48:00,81.1,75.4,30.05,WSW,248,0.0,2.0,83,0.00,,,0.01,Wunderground v.1.15,2013-07-19 14:48:00,
2013-07-19 10:49:00,81.1,75.1,30.05,WSW,248,0.0,0.0,82,0.00,,,0.01,Wunderground v.1.15,2013-07-19 14:49:00,
2013-07-19 10:51:00,81.1,75.4,30.05,WSW,248,2.0,3.0,83,0.00,,,0.01,Wunderground v.1.15,2013-07-19 14:51:00,
2013-07-19 10:52:00,81.0,75.0,30.05,WSW,248,1.0,3.0,82,0.00,,,0.01,Wunderground v.1.15,2013-07-19 14:52:00,
2013-07-19 10:53:00,81.0,75.3,30.05,WSW,248,2.0,3.0,83,0.00,,,0.01,Wunderground v.1.15,2013-07-19 14:53:00,
2013-07-19 10:54:00,81.0,75.3,30.05,WSW,248,2.0,3.0,83,0.00,,,0.01,Wunderground v.1.15,2013-07-19 14:54:00,
2013-07-19 10:55:00,81.0,75.7,30.05,WSW,248,1.0,3.0,84,0.00,,,0.01,Wunderground v.1.15,2013-07-19 14:55:00,
2013-07-19 10:56:00,81.0,75.7,30.05,WSW,245,3.0,3.0,84,0.00,,,0.01,Wunderground v.1.15,2013-07-19 14:56:00,
2013-07-19 10:58:00,81.0,75.7,30.05,WSW,245,1.0,3.0,84,0.00,,,0.01,Wunderground v.1.15,2013-07-19 14:58:00,
2013-07-19 10:59:00,81.0,75.0,30.05,WSW,245,2.0,3.0,82,0.00,,,0.01,Wunderground v.1.15,2013-07-19 14:59:00,
2013-07-19 11:00:00,80.9,75.2,30.05,WSW,245,3.0,3.0,83,0.00,,,0.01,Wunderground v.1.15,2013-07-19 15:00:00,
2013-07-19 11:01:00,80.9,75.2,30.05,WSW,245,1.0,3.0,83,0.00,,,0.01,Wunderground v.1.15,2013-07-19 15:01:00,
2013-07-19 11:03:00,81.0,75.7,30.04,WSW,242,1.0,5.0,84,0.00,,,0.01,Wunderground v.1.15,2013-07-19 15:03:00,
2013-07-19 11:04:00,81.0,75.7,30.05,WSW,242,0.0,5.0,84,0.00,,,0.01,Wunderground v.1.15,2013-07-19 15:04:00,
2013-07-19 11:05:00,81.0,75.0,30.05,WSW,241,1.0,5.0,82,0.00,,,0.01,Wunderground v.1.15,2013-07-19 15:05:00,
2013-07-19 11:07:00,81.0,75.3,30.05,WSW,242,0.0,5.0,83,0.00,,,0.01,Wunderground v.1.15,2013-07-19 15:07:00,
2013-07-19 11:08:00,81.0,75.7,30.05,WSW,241,3.0,5.0,84,0.00,,,0.01,Wunderground v.1.15,2013-07-19 15:08:00,
2013-07-19 11:09:00,81.0,75.7,30.05,WSW,241,2.0,5.0,84,0.00,,,0.01,Wunderground v.1.15,2013-07-19 15:09:00,
2013-07-19 11:11:00,80.9,75.6,30.04,WSW,242,1.0,2.0,84,0.00,,,0.01,Wunderground v.1.15,2013-07-19 15:11:00,
2013-07-19 11:12:00,80.9,75.6,30.05,WSW,242,0.0,2.0,84,0.00,,,0.01,Wunderground v.1.15,2013-07-19 15:12:00,
2013-07-19 11:14:00,81.1,76.2,30.05,WSW,242,2.0,2.0,85,0.00,,,0.01,Wunderground v.1.15,2013-07-19 15:14:00,
2013-07-19 11:16:00,81.4,77.5,30.05,WSW,240,1.0,3.0,88,0.00,,,0.01,Wunderground v.1.15,2013-07-19 15:16:00,
2013-07-19 11:17:00,81.5,77.6,30.05,WSW,240,0.0,3.0,88,0.00,,,0.01,Wunderground v.1.15,2013-07-19 15:17:00,
2013-07-19 11:19:00,81.8,77.2,30.05,WSW,240,1.0,3.0,86,0.00,,,0.01,Wunderground v.1.15,2013-07-19 15:19:00,
2013-07-19 11:21:00,81.9,75.9,30.05,SW,227,0.0,4.0,82,0.00,,,0.01,Wunderground v.1.15,2013-07-19 15:21:00,
2013-07-19 11:22:00,81.9,76.2,30.05,SW,226,0.0,4.0,83,0.00,,,0.01,Wunderground v.1.15,2013-07-19 15:22:00,
2013-07-19 11:24:00,82.0,76.7,30.05,SW,226,3.0,4.0,84,0.00,,,0.01,Wunderground v.1.15,2013-07-19 15:24:00,
2013-07-19 11:25:00,81.9,76.2,30.05,SW,221,4.0,5.0,83,0.00,,,0.01,Wunderground v.1.15,2013-07-19 15:25:00,
2013-07-19 11:27:00,81.9,75.9,30.05,SW,221,0.0,5.0,82,0.00,,,0.01,Wunderground v.1.15,2013-07-19 15:27:00,
2013-07-19 11:28:00,81.9,76.2,30.05,SW,221,0.0,5.0,83,0.00,,,0.01,Wunderground v.1.15,2013-07-19 15:28:00,
2013-07-19 11:30:00,82.1,76.1,30.05,SW,221,0.0,2.0,82,0.00,,,0.01,Wunderground v.1.15,2013-07-19 15:30:00,
2013-07-19 11:32:00,82.3,75.5,30.04,SW,219,3.0,5.0,80,0.00,,,0.01,Wunderground v.1.15,2013-07-19 15:32:00,
2013-07-19 11:33:00,82.3,75.5,30.04,SW,219,4.0,5.0,80,0.00,,,0.01,Wunderground v.1.15,2013-07-19 15:33:00,
2013-07-19 11:35:00,82.6,76.5,30.05,SW,219,1.0,5.0,82,0.00,,,0.01,Wunderground v.1.15,2013-07-19 15:35:00,
2013-07-19 11:36:00,82.6,76.5,30.05,SW,219,1.0,5.0,82,0.00,,,0.01,Wunderground v.1.15,2013-07-19 15:36:00,
2013-07-19 11:38:00,82.8,75.6,30.05,SW,219,5.0,6.0,79,0.00,,,0.01,Wunderground v.1.15,2013-07-19 15:38:00,
2013-07-19 11:39:00,82.8,75.2,30.05,SW,219,1.0,7.0,78,0.00,,,0.01,Wunderground v.1.15,2013-07-19 15:39:00,
2013-07-19 11:40:00,82.9,76.5,30.05,SW,218,3.0,3.0,81,0.00,,,0.01,Wunderground v.1.15,2013-07-19 15:40:00,
2013-07-19 11:41:00,82.9,76.5,30.05,SW,219,2.0,3.0,81,0.00,,,0.01,Wunderground v.1.15,2013-07-19 15:41:00,
2013-07-19 11:43:00,83.0,76.9,30.05,SW,219,4.0,4.0,82,0.00,,,0.01,Wunderground v.1.15,2013-07-19 15:43:00,
2013-07-19 11:44:00,83.0,75.8,30.05,SW,218,2.0,4.0,79,0.00,,,0.01,Wunderground v.1.15,2013-07-19 15:44:00,
2013-07-19 11:46:00,83.1,75.9,30.05,SW,218,2.0,4.0,79,0.00,,,0.01,Wunderground v.1.15,2013-07-19 15:46:00,
2013-07-19 11:48:00,83.2,75.2,30.05,SW,219,6.0,7.0,77,0.00,,,0.01,Wunderground v.1.15,2013-07-19 15:48:00,
2013-07-19 11:49:00,83.2,74.4,30.05,SW,215,4.0,4.0,75,0.00,,,0.01,Wunderground v.1.15,2013-07-19 15:49:00,
2013-07-19 11:51:00,83.2,76.0,30.05,SW,214,1.0,4.0,79,0.00,,,0.01,Wunderground v.1.15,2013-07-19 15:51:00,
2013-07-19 11:54:00,83.5,76.3,30.05,SW,215,1.0,4.0,79,0.00,,,0.01,Wunderground v.1.15,2013-07-19 15:54:00,
2013-07-19 11:55:00,83.6,76.4,30.04,South,172,1.0,4.0,79,0.00,,,0.01,Wunderground v.1.15,2013-07-19 15:55:00,
2013-07-19 11:56:00,83.7,76.1,30.04,South,172,2.0,4.0,78,0.00,,,0.01,Wunderground v.1.15,2013-07-19 15:56:00,
2013-07-19 11:57:00,83.8,76.6,30.04,South,172,2.0,4.0,79,0.00,,,0.01,Wunderground v.1.15,2013-07-19 15:57:00,
2013-07-19 11:59:00,84.0,76.4,30.04,South,188,3.0,6.0,78,0.00,,,0.01,Wunderground v.1.15,2013-07-19 15:59:00,
2013-07-19 12:00:00,84.0,75.6,30.04,South,188,2.0,3.0,76,0.00,,,0.01,Wunderground v.1.15,2013-07-19 16:00:00,
2013-07-19 12:02:00,84.0,75.2,30.04,South,180,3.0,7.0,75,0.00,,,0.01,Wunderground v.1.15,2013-07-19 16:02:00,
2013-07-19 12:04:00,84.0,74.8,30.04,South,191,1.0,7.0,74,0.00,,,0.01,Wunderground v.1.15,2013-07-19 16:04:00,
2013-07-19 12:05:00,83.9,74.3,30.04,SSW,194,5.0,7.0,73,0.00,,,0.01,Wunderground v.1.15,2013-07-19 16:05:00,
2013-07-19 12:07:00,84.1,76.1,30.04,SSW,194,0.0,7.0,77,0.00,,,0.01,Wunderground v.1.15,2013-07-19 16:07:00,
2013-07-19 12:08:00,84.1,75.7,30.04,SSW,194,0.0,7.0,76,0.00,,,0.01,Wunderground v.1.15,2013-07-19 16:08:00,
2013-07-19 12:09:00,84.1,74.9,30.04,SSW,194,2.0,7.0,74,0.00,,,0.01,Wunderground v.1.15,2013-07-19 16:09:00,
2013-07-19 12:10:00,84.2,75.8,30.04,SSW,194,2.0,3.0,76,0.00,,,0.01,Wunderground v.1.15,2013-07-19 16:10:00,
2013-07-19 12:12:00,84.4,75.6,30.04,SSW,194,0.0,3.0,75,0.00,,,0.01,Wunderground v.1.15,2013-07-19 16:12:00,
2013-07-19 12:13:00,84.3,75.9,30.04,SSW,194,0.0,3.0,76,0.00,,,0.01,Wunderground v.1.15,2013-07-19 16:13:00,
2013-07-19 12:14:00,84.5,75.7,30.04,SSW,194,2.0,3.0,75,0.00,,,0.01,Wunderground v.1.15,2013-07-19 16:14:00,
2013-07-19 12:15:00,84.7,77.5,30.04,SSW,194,0.0,3.0,79,0.00,,,0.01,Wunderground v.1.15,2013-07-19 16:15:00,
2013-07-19 12:16:00,84.7,77.5,30.04,SSW,194,1.0,3.0,79,0.00,,,0.01,Wunderground v.1.15,2013-07-19 16:16:00,
2013-07-19 12:17:00,84.9,77.3,30.04,SSW,194,0.0,4.0,78,0.00,,,0.01,Wunderground v.1.15,2013-07-19 16:17:00,
2013-07-19 12:18:00,85.0,78.1,30.04,SSW,194,1.0,4.0,80,0.00,,,0.01,Wunderground v.1.15,2013-07-19 16:18:00,
2013-07-19 12:19:00,85.1,75.9,30.04,SSW,194,2.0,4.0,74,0.00,,,0.01,Wunderground v.1.15,2013-07-19 16:19:00,
2013-07-19 12:20:00,85.2,77.2,30.04,SSW,194,1.0,2.0,77,0.00,,,0.01,Wunderground v.1.15,2013-07-19 16:20:00,
2013-07-19 12:21:00,85.3,76.9,30.04,SSW,194,2.0,3.0,76,0.00,,,0.01,Wunderground v.1.15,2013-07-19 16:21:00,
2013-07-19 12:23:00,85.4,75.8,30.04,SSW,194,2.0,3.0,73,0.00,,,0.01,Wunderground v.1.15,2013-07-19 16:23:00,
2013-07-19 12:24:00,85.5,76.3,30.04,SSW,194,0.0,3.0,74,0.00,,,0.01,Wunderground v.1.15,2013-07-19 16:24:00,
2013-07-19 12:25:00,85.6,76.4,30.04,SSW,195,1.0,3.0,74,0.00,,,0.01,Wunderground v.1.15,2013-07-19 16:25:00,
2013-07-19 12:27:00,85.8,76.1,30.04,SSW,195,2.0,3.0,73,0.00,,,0.01,Wunderground v.1.15,2013-07-19 16:27:00,
2013-07-19 12:28:00,85.9,75.4,30.04,SSW,195,1.0,3.0,71,0.00,,,0.01,Wunderground v.1.15,2013-07-19 16:28:00,
2013-07-19 12:29:00,85.9,75.8,30.04,SSW,195,1.0,4.0,72,0.00,,,0.01,Wunderground v.1.15,2013-07-19 16:29:00,
2013-07-19 12:31:00,86.0,77.1,30.03,SSW,195,0.0,2.0,75,0.00,,,0.01,Wunderground v.1.15,2013-07-19 16:31:00,
2013-07-19 12:32:00,86.0,76.3,30.03,SSW,195,5.0,7.0,73,0.00,,,0.01,Wunderground v.1.15,2013-07-19 16:32:00,
2013-07-19 12:33:00,85.9,74.5,30.03,SSW,195,1.0,7.0,69,0.00,,,0.01,Wunderground v.1.15,2013-07-19 16:33:00,
2013-07-19 12:34:00,85.8,75.3,30.03,SSW,195,1.0,7.0,71,0.00,,,0.01,Wunderground v.1.15,2013-07-19 16:34:00,
2013-07-19 12:35:00,85.8,75.3,30.03,SSW,196,0.0,7.0,71,0.00,,,0.01,Wunderground v.1.15,2013-07-19 16:35:00,
2013-07-19 12:36:00,85.9,75.8,30.03,SSW,195,0.0,7.0,72,0.00,,,0.01,Wunderground v.1.15,2013-07-19 16:36:00,
2013-07-19 12:38:00,85.9,75.4,30.03,SSW,196,3.0,7.0,71,0.00,,,0.01,Wunderground v.1.15,2013-07-19 16:38:00,
2013-07-19 12:39:00,86.0,76.7,30.03,SSW,198,3.0,7.0,74,0.00,,,0.01,Wunderground v.1.15,2013-07-19 16:39:00,
2013-07-19 12:40:00,85.9,75.4,30.03,SSW,198,3.0,4.0,71,0.00,,,0.01,Wunderground v.1.15,2013-07-19 16:40:00,
2013-07-19 12:42:00,85.9,77.1,30.03,SSW,198,1.0,4.0,75,0.00,,,0.01,Wunderground v.1.15,2013-07-19 16:42:00,
2013-07-19 12:43:00,85.9,77.1,30.03,SSW,198,0.0,4.0,75,0.00,,,0.01,Wunderground v.1.15,2013-07-19 16:43:00,
2013-07-19 12:44:00,85.9,77.1,30.03,SSW,198,0.0,4.0,75,0.00,,,0.01,Wunderground v.1.15,2013-07-19 16:44:00,
2013-07-19 12:45:00,85.9,75.8,30.03,SSW,198,0.0,4.0,72,0.00,,,0.01,Wunderground v.1.15,2013-07-19 16:45:00,
2013-07-19 12:47:00,85.8,75.7,30.03,SSW,198,1.0,4.0,72,0.00,,,0.01,Wunderground v.1.15,2013-07-19 16:47:00,
2013-07-19 12:48:00,85.8,75.7,30.03,SSW,198,1.0,4.0,72,0.00,,,0.01,Wunderground v.1.15,2013-07-19 16:48:00,
2013-07-19 12:49:00,85.8,74.4,30.03,SSW,198,2.0,4.0,69,0.00,,,0.01,Wunderground v.1.15,2013-07-19 16:49:00,
2013-07-19 12:50:00,85.8,76.1,30.03,SSW,198,2.0,2.0,73,0.00,,,0.01,Wunderground v.1.15,2013-07-19 16:50:00,
2013-07-19 12:52:00,85.9,76.6,30.02,SSW,198,1.0,3.0,74,0.00,,,0.01,Wunderground v.1.15,2013-07-19 16:52:00,
2013-07-19 12:53:00,86.0,77.1,30.02,SSW,198,2.0,3.0,75,0.00,,,0.01,Wunderground v.1.15,2013-07-19 16:53:00,
2013-07-19 12:55:00,86.2,77.3,30.03,SSW,199,0.0,3.0,75,0.00,,,0.01,Wunderground v.1.15,2013-07-19 16:55:00,
2013-07-19 12:56:00,86.2,75.3,30.02,SSW,199,3.0,3.0,70,0.00,,,0.01,Wunderground v.1.15,2013-07-19 16:56:00,
2013-07-19 12:57:00,86.3,74.9,30.02,SSW,199,0.0,3.0,69,0.00,,,0.01,Wunderground v.1.15,2013-07-19 16:57:00,
2013-07-19 12:58:00,86.3,74.5,30.02,SSW,199,0.0,3.0,68,0.00,,,0.01,Wunderground v.1.15,2013-07-19 16:58:00,
2013-07-19 13:00:00,86.5,75.5,30.02,SSW,198,1.0,3.0,70,0.00,,,0.01,Wunderground v.1.15,2013-07-19 17:00:00,
2013-07-19 13:01:00,86.6,76.1,30.03,WSW,239,3.0,5.0,71,0.00,,,0.01,Wunderground v.1.15,2013-07-19 17:01:00,
2013-07-19 13:02:00,86.6,75.2,30.02,WSW,238,1.0,5.0,69,0.00,,,0.01,Wunderground v.1.15,2013-07-19 17:02:00,
2013-07-19 13:03:00,86.8,77.1,30.02,WSW,239,0.0,5.0,73,0.00,,,0.01,Wunderground v.1.15,2013-07-19 17:03:00,
2013-07-19 13:05:00,86.9,75.5,30.02,WSW,240,1.0,5.0,69,0.00,,,0.01,Wunderground v.1.15,2013-07-19 17:05:00,
2013-07-19 13:07:00,87.1,74.4,30.02,SW,229,5.0,6.0,66,0.00,,,0.01,Wunderground v.1.15,2013-07-19 17:07:00,
2013-07-19 13:08:00,87.1,74.4,30.02,SW,229,3.0,6.0,66,0.00,,,0.01,Wunderground v.1.15,2013-07-19 17:08:00,
2013-07-19 13:11:00,87.1,74.4,30.02,SW,229,1.0,2.0,66,0.00,,,0.01,Wunderground v.1.15,2013-07-19 17:11:00,
2013-07-19 13:13:00,87.1,74.8,30.02,SW,229,3.0,3.0,67,0.00,,,0.01,Wunderground v.1.15,2013-07-19 17:13:00,
2013-07-19 13:14:00,87.1,73.9,30.02,SW,229,3.0,3.0,65,0.00,,,0.01,Wunderground v.1.15,2013-07-19 17:14:00,
2013-07-19 13:16:00,86.9,74.2,30.02,SW,229,1.0,3.0,66,0.00,,,0.01,Wunderground v.1.15,2013-07-19 17:16:00,
2013-07-19 13:18:00,86.9,75.9,30.02,SW,229,2.0,3.0,70,0.00,,,0.01,Wunderground v.1.15,2013-07-19 17:18:00,
2013-07-19 13:19:00,87.0,76.0,30.02,SW,229,3.0,3.0,70,0.00,,,0.01,Wunderground v.1.15,2013-07-19 17:19:00,
2013-07-19 13:21:00,87.0,76.5,30.01,SW,229,1.0,2.0,71,0.00,,,0.01,Wunderground v.1.15,2013-07-19 17:21:00,
2013-07-19 13:24:00,87.0,76.5,30.01,SW,229,0.0,5.0,71,0.00,,,0.01,Wunderground v.1.15,2013-07-19 17:24:00,
2013-07-19 13:25:00,87.0,75.6,30.01,SW,229,4.0,5.0,69,0.00,,,0.01,Wunderground v.1.15,2013-07-19 17:25:00,
2013-07-19 13:26:00,87.1,77.8,30.01,SW,229,0.0,5.0,74,0.00,,,0.01,Wunderground v.1.15,2013-07-19 17:26:00,
2013-07-19 13:27:00,87.1,77.8,30.01,SW,229,1.0,5.0,74,0.00,,,0.01,Wunderground v.1.15,2013-07-19 17:27:00,
2013-07-19 13:29:00,87.2,75.8,30.01,SW,229,0.0,1.0,69,0.00,,,0.01,Wunderground v.1.15,2013-07-19 17:29:00,
2013-07-19 13:30:00,87.2,76.2,30.01,SW,229,0.0,1.0,70,0.00,,,0.01,Wunderground v.1.15,2013-07-19 17:30:00,
2013-07-19 13:31:00,87.3,77.2,30.01,SW,229,1.0,2.0,72,0.00,,,0.01,Wunderground v.1.15,2013-07-19 17:31:00,
2013-07-19 13:32:00,87.3,77.2,30.01,SW,229,3.0,3.0,72,0.00,,,0.01,Wunderground v.1.15,2013-07-19 17:32:00,
2013-07-19 13:35:00,87.2,75.3,30.01,SW,218,3.0,6.0,68,0.00,,,0.01,Wunderground v.1.15,2013-07-19 17:35:00,
2013-07-19 13:37:00,86.9,73.3,30.01,SW,218,0.0,6.0,64,0.00,,,0.01,Wunderground v.1.15,2013-07-19 17:37:00,
2013-07-19 13:38:00,86.9,73.7,30.00,SW,218,0.0,6.0,65,0.00,,,0.01,Wunderground v.1.15,2013-07-19 17:38:00,
2013-07-19 13:40:00,86.8,75.8,30.01,SW,218,1.0,2.0,70,0.00,,,0.01,Wunderground v.1.15,2013-07-19 17:40:00,
2013-07-19 13:41:00,86.8,74.5,30.01,SW,218,2.0,3.0,67,0.00,,,0.01,Wunderground v.1.15,2013-07-19 17:41:00,
2013-07-19 13:42:00,86.7,74.0,30.00,SW,218,0.0,3.0,66,0.00,,,0.01,Wunderground v.1.15,2013-07-19 17:42:00,
2013-07-19 13:43:00,86.7,74.9,30.00,SW,218,1.0,3.0,68,0.00,,,0.01,Wunderground v.1.15,2013-07-19 17:43:00,
2013-07-19 13:45:00,86.7,74.9,30.00,SW,218,3.0,4.0,68,0.00,,,0.01,Wunderground v.1.15,2013-07-19 17:45:00,
2013-07-19 13:46:00,86.7,75.7,30.00,SW,218,1.0,4.0,70,0.00,,,0.01,Wunderground v.1.15,2013-07-19 17:46:00,
2013-07-19 13:47:00,86.8,75.8,30.00,SW,218,3.0,4.0,70,0.00,,,0.01,Wunderground v.1.15,2013-07-19 17:47:00,
2013-07-19 13:49:00,86.8,75.0,30.00,SW,218,1.0,4.0,68,0.00,,,0.01,Wunderground v.1.15,2013-07-19 17:49:00,
2013-07-19 13:50:00,86.8,75.8,30.00,SW,218,2.0,2.0,70,0.00,,,0.01,Wunderground v.1.15,2013-07-19 17:50:00,
2013-07-19 13:51:00,86.8,74.5,30.00,SW,218,2.0,2.0,67,0.00,,,0.01,Wunderground v.1.15,2013-07-19 17:51:00,
2013-07-19 13:52:00,86.9,74.6,29.99,SW,218,0.0,3.0,67,0.00,,,0.01,Wunderground v.1.15,2013-07-19 17:52:00,
2013-07-19 13:54:00,87.0,76.0,29.99,SW,218,0.0,3.0,70,0.00,,,0.01,Wunderground v.1.15,2013-07-19 17:54:00,
2013-07-19 13:55:00,87.1,76.1,29.99,SW,218,0.0,3.0,70,0.00,,,0.01,Wunderground v.1.15,2013-07-19 17:55:00,
2013-07-19 13:56:00,87.1,76.5,29.99,SW,218,4.0,4.0,71,0.00,,,0.01,Wunderground v.1.15,2013-07-19 17:56:00,
2013-07-19 13:57:00,87.2,74.5,29.99,SW,218,2.0,5.0,66,0.00,,,0.01,Wunderground v.1.15,2013-07-19 17:57:00,
2013-07-19 13:59:00,87.2,73.5,29.99,SW,218,3.0,7.0,64,0.00,,,0.01,Wunderground v.1.15,2013-07-19 17:59:00,
2013-07-19 14:00:00,87.1,73.0,29.99,SW,218,1.0,3.0,63,0.00,,,0.01,Wunderground v.1.15,2013-07-19 18:00:00,
2013-07-19 14:01:00,87.1,75.3,29.99,SW,218,0.0,3.0,68,0.00,,,0.01,Wunderground v.1.15,2013-07-19 18:01:00,
2013-07-19 14:02:00,87.0,73.8,29.99,SW,218,1.0,3.0,65,0.00,,,0.01,Wunderground v.1.15,2013-07-19 18:02:00,
2013-07-19 14:03:00,87.1,73.9,29.99,SW,218,0.0,3.0,65,0.00,,,0.01,Wunderground v.1.15,2013-07-19 18:03:00,
2013-07-19 14:05:00,87.2,75.3,29.99,SW,218,0.0,3.0,68,0.00,,,0.01,Wunderground v.1.15,2013-07-19 18:05:00,
2013-07-19 14:07:00,87.4,76.8,29.99,SW,218,2.0,3.0,71,0.00,,,0.01,Wunderground v.1.15,2013-07-19 18:07:00,
2013-07-19 14:08:00,87.5,75.2,29.99,SW,218,2.0,5.0,67,0.00,,,0.01,Wunderground v.1.15,2013-07-19 18:08:00,
2013-07-19 14:10:00,87.7,75.4,29.99,SW,218,1.0,2.0,67,0.00,,,0.01,Wunderground v.1.15,2013-07-19 18:10:00,
2013-07-19 14:12:00,87.9,75.6,29.98,SW,218,1.0,2.0,67,0.00,,,0.01,Wunderground v.1.15,2013-07-19 18:12:00,
2013-07-19 14:13:00,88.0,76.5,29.98,SW,218,0.0,2.0,69,0.00,,,0.01,Wunderground v.1.15,2013-07-19 18:13:00,
2013-07-19 14:15:00,88.1,75.3,29.98,SW,218,2.0,5.0,66,0.00,,,0.01,Wunderground v.1.15,2013-07-19 18:15:00,
2013-07-19 14:16:00,88.2,76.3,29.98,SW,218,2.0,5.0,68,0.00,,,0.01,Wunderground v.1.15,2013-07-19 18:16:00,
2013-07-19 14:17:00,88.3,76.4,29.98,SW,219,2.0,5.0,68,0.00,,,0.01,Wunderground v.1.15,2013-07-19 18:17:00,
2013-07-19 14:18:00,88.4,77.4,29.98,SW,229,1.0,5.0,70,0.00,,,0.01,Wunderground v.1.15,2013-07-19 18:18:00,
2013-07-19 14:21:00,88.4,76.9,29.98,SW,229,1.0,1.0,69,0.00,,,0.01,Wunderground v.1.15,2013-07-19 18:21:00,
2013-07-19 14:22:00,88.3,76.4,29.98,SW,229,0.0,1.0,68,0.00,,,0.01,Wunderground v.1.15,2013-07-19 18:22:00,
2013-07-19 14:23:00,88.3,77.3,29.98,SW,229,0.0,1.0,70,0.00,,,0.01,Wunderground v.1.15,2013-07-19 18:23:00,
2013-07-19 14:26:00,88.2,77.2,29.98,SW,229,0.0,1.0,70,0.00,,,0.01,Wunderground v.1.15,2013-07-19 18:26:00,
2013-07-19 14:27:00,88.1,75.8,29.98,SW,229,0.0,1.0,67,0.00,,,0.01,Wunderground v.1.15,2013-07-19 18:27:00,
2013-07-19 14:28:00,88.0,76.5,29.98,SW,229,0.0,1.0,69,0.00,,,0.01,Wunderground v.1.15,2013-07-19 18:28:00,
2013-07-19 14:29:00,88.0,76.5,29.98,SW,229,0.0,1.0,69,0.00,,,0.01,Wunderground v.1.15,2013-07-19 18:29:00,
2013-07-19 14:31:00,87.8,76.8,29.98,SW,229,1.0,3.0,70,0.00,,,0.01,Wunderground v.1.15,2013-07-19 18:31:00,
2013-07-19 14:32:00,87.6,76.2,29.98,SW,229,1.0,3.0,69,0.00,,,0.01,Wunderground v.1.15,2013-07-19 18:32:00,
2013-07-19 14:34:00,87.5,76.1,29.98,SW,229,1.0,3.0,69,0.00,,,0.01,Wunderground v.1.15,2013-07-19 18:34:00,
2013-07-19 14:35:00,87.4,76.8,29.98,SW,229,1.0,3.0,71,0.00,,,0.01,Wunderground v.1.15,2013-07-19 18:35:00,
2013-07-19 14:36:00,87.3,76.7,29.98,SW,229,0.0,3.0,71,0.00,,,0.01,Wunderground v.1.15,2013-07-19 18:36:00,
2013-07-19 14:38:00,87.3,77.2,29.98,WSW,246,4.0,5.0,72,0.00,,,0.01,Wunderground v.1.15,2013-07-19 18:38:00,
2013-07-19 14:39:00,87.2,76.6,29.98,WSW,246,2.0,5.0,71,0.00,,,0.01,Wunderground v.1.15,2013-07-19 18:39:00,
2013-07-19 14:40:00,87.1,76.5,29.98,WSW,246,1.0,1.0,71,0.00,,,0.01,Wunderground v.1.15,2013-07-19 18:40:00,
2013-07-19 14:41:00,87.1,77.4,29.98,WSW,245,0.0,1.0,73,0.00,,,0.01,Wunderground v.1.15,2013-07-19 18:41:00,
2013-07-19 14:43:00,87.0,76.9,29.98,WSW,246,1.0,1.0,72,0.00,,,0.01,Wunderground v.1.15,2013-07-19 18:43:00,
2013-07-19 14:44:00,87.0,77.7,29.98,WSW,245,1.0,2.0,74,0.00,,,0.01,Wunderground v.1.15,2013-07-19 18:44:00,
2013-07-19 14:46:00,87.1,77.4,29.97,WSW,245,3.0,3.0,73,0.00,,,0.01,Wunderground v.1.15,2013-07-19 18:46:00,
2013-07-19 14:47:00,87.1,76.5,29.97,WSW,246,1.0,3.0,71,0.00,,,0.01,Wunderground v.1.15,2013-07-19 18:47:00,
2013-07-19 14:48:00,87.2,76.2,29.97,WSW,245,2.0,3.0,70,0.00,,,0.01,Wunderground v.1.15,2013-07-19 18:48:00,
2013-07-19 14:49:00,87.3,76.3,29.97,WSW,246,1.0,3.0,70,0.00,,,0.01,Wunderground v.1.15,2013-07-19 18:49:00,
2013-07-19 14:51:00,87.5,76.1,29.97,WSW,246,3.0,3.0,69,0.00,,,0.01,Wunderground v.1.15,2013-07-19 18:51:00,
2013-07-19 14:52:00,87.6,74.8,29.97,WSW,244,4.0,5.0,66,0.00,,,0.01,Wunderground v.1.15,2013-07-19 18:52:00,
2013-07-19 14:54:00,87.6,73.4,29.97,WSW,242,1.0,5.0,63,0.00,,,0.01,Wunderground v.1.15,2013-07-19 18:54:00,
2013-07-19 14:55:00,87.7,75.4,29.97,WSW,242,1.0,5.0,67,0.00,,,0.01,Wunderground v.1.15,2013-07-19 18:55:00,
2013-07-19 14:56:00,87.7,74.9,29.97,WSW,242,0.0,5.0,66,0.00,,,0.01,Wunderground v.1.15,2013-07-19 18:56:00,
2013-07-19 14:57:00,87.8,77.2,29.97,WSW,242,1.0,5.0,71,0.00,,,0.01,Wunderground v.1.15,2013-07-19 18:57:00,
2013-07-19 14:59:00,87.7,76.7,29.97,WSW,242,0.0,5.0,70,0.00,,,0.01,Wunderground v.1.15,2013-07-19 18:59:00,
2013-07-19 15:00:00,87.7,74.9,29.97,WSW,242,0.0,1.0,66,0.00,,,0.01,Wunderground v.1.15,2013-07-19 19:00:00,
2013-07-19 15:01:00,87.6,75.7,29.97,WSW,242,0.0,1.0,68,0.00,,,0.01,Wunderground v.1.15,2013-07-19 19:01:00,
2013-07-19 15:03:00,87.5,76.5,29.96,WSW,242,0.0,1.0,70,0.00,,,0.01,Wunderground v.1.15,2013-07-19 19:03:00,
2013-07-19 15:04:00,87.4,77.7,29.97,WSW,242,1.0,3.0,73,0.00,,,0.01,Wunderground v.1.15,2013-07-19 19:04:00,
2013-07-19 15:05:00,87.3,75.9,29.96,WSW,242,0.0,3.0,69,0.00,,,0.01,Wunderground v.1.15,2013-07-19 19:05:00,
2013-07-19 15:06:00,87.2,75.3,29.96,WSW,242,2.0,3.0,68,0.00,,,0.01,Wunderground v.1.15,2013-07-19 19:06:00,
2013-07-19 15:08:00,87.3,76.3,29.96,WSW,242,0.0,3.0,70,0.00,,,0.01,Wunderground v.1.15,2013-07-19 19:08:00,
2013-07-19 15:09:00,87.4,76.0,29.96,WSW,242,1.0,3.0,69,0.00,,,0.01,Wunderground v.1.15,2013-07-19 19:09:00,
2013-07-19 15:10:00,87.4,74.2,29.96,WSW,242,3.0,4.0,65,0.00,,,0.01,Wunderground v.1.15,2013-07-19 19:10:00,
2013-07-19 15:11:00,87.5,73.3,29.96,WSW,242,2.0,6.0,63,0.00,,,0.01,Wunderground v.1.15,2013-07-19 19:11:00,
2013-07-19 15:14:00,87.5,74.7,29.96,WSW,242,1.0,6.0,66,0.00,,,0.01,Wunderground v.1.15,2013-07-19 19:14:00,
2013-07-19 15:15:00,87.6,75.3,29.96,WSW,242,1.0,6.0,67,0.00,,,0.01,Wunderground v.1.15,2013-07-19 19:15:00,
2013-07-19 15:16:00,87.5,76.1,29.96,WSW,242,0.0,6.0,69,0.00,,,0.01,Wunderground v.1.15,2013-07-19 19:16:00,
2013-07-19 15:19:00,87.7,77.1,29.96,WSW,242,0.0,6.0,71,0.00,,,0.01,Wunderground v.1.15,2013-07-19 19:19:00,
2013-07-19 15:20:00,87.8,76.8,29.96,WSW,242,0.0,1.0,70,0.00,,,0.01,Wunderground v.1.15,2013-07-19 19:20:00,
2013-07-19 15:21:00,87.9,76.0,29.96,SW,232,7.0,7.0,68,0.00,,,0.01,Wunderground v.1.15,2013-07-19 19:21:00,
2013-07-19 15:24:00,88.1,75.8,29.95,SW,232,2.0,7.0,67,0.00,,,0.01,Wunderground v.1.15,2013-07-19 19:24:00,
2013-07-19 15:25:00,88.2,76.3,29.95,SW,232,2.0,7.0,68,0.00,,,0.01,Wunderground v.1.15,2013-07-19 19:25:00,
2013-07-19 15:26:00,88.3,75.9,29.95,SW,232,2.0,7.0,67,0.00,,,0.01,Wunderground v.1.15,2013-07-19 19:26:00,
2013-07-19 15:27:00,88.3,75.5,29.95,SW,232,0.0,7.0,66,0.00,,,0.01,Wunderground v.1.15,2013-07-19 19:27:00,
2013-07-19 15:29:00,88.5,76.1,29.95,SW,215,1.0,7.0,67,0.00,,,0.01,Wunderground v.1.15,2013-07-19 19:29:00,
2013-07-19 15:30:00,88.6,76.2,29.95,SW,215,3.0,4.0,67,0.00,,,0.01,Wunderground v.1.15,2013-07-19 19:30:00,
2013-07-19 15:31:00,88.6,75.8,29.95,SW,215,2.0,4.0,66,0.00,,,0.01,Wunderground v.1.15,2013-07-19 19:31:00,
2013-07-19 15:33:00,88.7,75.4,29.95,SW,215,0.0,4.0,65,0.00,,,0.01,Wunderground v.1.15,2013-07-19 19:33:00,
2013-07-19 15:34:00,88.8,75.5,29.95,SW,215,0.0,4.0,65,0.00,,,0.01,Wunderground v.1.15,2013-07-19 19:34:00,
2013-07-19 15:35:00,88.8,76.9,29.95,SW,215,1.0,4.0,68,0.00,,,0.01,Wunderground v.1.15,2013-07-19 19:35:00,
2013-07-19 15:36:00,89.0,74.3,29.94,SW,215,0.0,4.0,62,0.00,,,0.01,Wunderground v.1.15,2013-07-19 19:36:00,
2013-07-19 15:38:00,89.2,75.0,29.94,SW,215,1.0,4.0,63,0.00,,,0.01,Wunderground v.1.15,2013-07-19 19:38:00,
2013-07-19 15:40:00,89.4,75.1,29.94,SW,215,0.0,1.0,63,0.00,,,0.01,Wunderground v.1.15,2013-07-19 19:40:00,
2013-07-19 15:41:00,89.6,76.7,29.94,SW,215,1.0,2.0,66,0.00,,,0.01,Wunderground v.1.15,2013-07-19 19:41:00,
2013-07-19 15:42:00,89.7,75.4,29.94,SW,215,3.0,3.0,63,0.00,,,0.01,Wunderground v.1.15,2013-07-19 19:42:00,
2013-07-19 15:43:00,89.9,77.9,29.94,SW,215,1.0,4.0,68,0.00,,,0.01,Wunderground v.1.15,2013-07-19 19:43:00,
2013-07-19 15:45:00,89.9,77.9,29.93,SW,215,2.0,4.0,68,0.00,,,0.01,Wunderground v.1.15,2013-07-19 19:45:00,
2013-07-19 15:47:00,90.0,74.7,29.94,SW,218,0.0,4.0,61,0.00,,,0.01,Wunderground v.1.15,2013-07-19 19:47:00,
2013-07-19 15:49:00,90.1,74.8,29.93,SW,218,1.0,4.0,61,0.00,,,0.01,Wunderground v.1.15,2013-07-19 19:49:00,
2013-07-19 15:50:00,90.1,75.3,29.93,SW,218,0.0,1.0,62,0.00,,,0.01,Wunderground v.1.15,2013-07-19 19:50:00,
2013-07-19 15:52:00,90.1,74.8,29.93,SW,218,2.0,2.0,61,0.00,,,0.01,Wunderground v.1.15,2013-07-19 19:52:00,
2013-07-19 15:53:00,90.1,74.8,29.93,SW,218,0.0,2.0,61,0.00,,,0.01,Wunderground v.1.15,2013-07-19 19:53:00,
2013-07-19 15:54:00,90.2,76.8,29.93,SW,218,2.0,2.0,65,0.00,,,0.01,Wunderground v.1.15,2013-07-19 19:54:00,
2013-07-19 15:55:00,90.2,76.8,29.93,SW,218,0.0,2.0,65,0.00,,,0.01,Wunderground v.1.15,2013-07-19 19:55:00,
2013-07-19 15:57:00,90.4,76.1,29.93,SW,218,0.0,2.0,63,0.00,,,0.01,Wunderground v.1.15,2013-07-19 19:57:00,
2013-07-19 15:58:00,90.4,76.1,29.93,SW,218,1.0,2.0,63,0.00,,,0.01,Wunderground v.1.15,2013-07-19 19:58:00,
2013-07-19 15:59:00,90.5,75.7,29.93,SW,218,0.0,2.0,62,0.00,,,0.01,Wunderground v.1.15,2013-07-19 19:59:00,
2013-07-19 16:00:00,90.5,75.2,29.93,SSW,209,3.0,7.0,61,0.00,,,0.01,Wunderground v.1.15,2013-07-19 20:00:00,
2013-07-19 16:01:00,90.4,74.6,29.93,SSW,209,5.0,7.0,60,0.00,,,0.01,Wunderground v.1.15,2013-07-19 20:01:00,
2013-07-19 16:02:00,90.1,75.3,29.93,SSW,209,3.0,7.0,62,0.00,,,0.01,Wunderground v.1.15,2013-07-19 20:02:00,
2013-07-19 16:03:00,90.0,74.7,29.93,SSW,209,2.0,7.0,61,0.00,,,0.01,Wunderground v.1.15,2013-07-19 20:03:00,
2013-07-19 16:04:00,89.8,74.6,29.93,SSW,209,1.0,7.0,61,0.00,,,0.01,Wunderground v.1.15,2013-07-19 20:04:00,
2013-07-19 16:06:00,89.7,75.9,29.93,SSW,209,0.0,7.0,64,0.00,,,0.01,Wunderground v.1.15,2013-07-19 20:06:00,
2013-07-19 16:07:00,89.5,77.5,29.93,SSW,209,0.0,7.0,68,0.00,,,0.01,Wunderground v.1.15,2013-07-19 20:07:00,
2013-07-19 16:09:00,89.4,77.4,29.93,SSW,209,0.0,7.0,68,0.00,,,0.01,Wunderground v.1.15,2013-07-19 20:09:00,
2013-07-19 16:10:00,89.2,75.9,29.93,SSW,209,0.0,2.0,65,0.00,,,0.01,Wunderground v.1.15,2013-07-19 20:10:00,
2013-07-19 16:11:00,89.2,75.9,29.93,SSW,209,0.0,2.0,65,0.00,,,0.01,Wunderground v.1.15,2013-07-19 20:11:00,
2013-07-19 16:13:00,89.2,75.4,29.93,SSW,209,0.0,2.0,64,0.00,,,0.01,Wunderground v.1.15,2013-07-19 20:13:00,
2013-07-19 16:14:00,89.3,76.4,29.93,SSW,210,0.0,3.0,66,0.00,,,0.01,Wunderground v.1.15,2013-07-19 20:14:00,
2013-07-19 16:16:00,89.4,75.6,29.93,SSW,209,0.0,3.0,64,0.00,,,0.01,Wunderground v.1.15,2013-07-19 20:16:00,
2013-07-19 16:18:00,89.6,77.6,29.93,SSW,209,0.0,3.0,68,0.00,,,0.01,Wunderground v.1.15,2013-07-19 20:18:00,
2013-07-19 16:19:00,89.7,78.2,29.93,SSW,209,0.0,0.0,69,0.00,,,0.01,Wunderground v.1.15,2013-07-19 20:19:00,
2013-07-19 16:21:00,89.8,76.5,29.93,SSW,209,2.0,2.0,65,0.00,,,0.01,Wunderground v.1.15,2013-07-19 20:21:00,
2013-07-19 16:23:00,89.9,78.4,29.92,SSW,209,0.0,3.0,69,0.00,,,0.01,Wunderground v.1.15,2013-07-19 20:23:00,
2013-07-19 16:25:00,89.9,76.6,29.92,SSW,192,1.0,4.0,65,0.00,,,0.01,Wunderground v.1.15,2013-07-19 20:25:00,
2013-07-19 16:26:00,89.8,76.9,29.92,SSW,192,0.0,4.0,66,0.00,,,0.01,Wunderground v.1.15,2013-07-19 20:26:00,
2013-07-19 16:27:00,89.7,77.7,29.92,SSW,192,1.0,4.0,68,0.00,,,0.01,Wunderground v.1.15,2013-07-19 20:27:00,
2013-07-19 16:29:00,89.4,77.0,29.92,SSW,192,1.0,4.0,67,0.00,,,0.01,Wunderground v.1.15,2013-07-19 20:29:00,
2013-07-19 16:30:00,89.1,75.8,29.92,SSW,192,2.0,3.0,65,0.00,,,0.01,Wunderground v.1.15,2013-07-19 20:30:00,
2013-07-19 16:31:00,89.0,76.6,29.92,SSW,192,1.0,3.0,67,0.00,,,0.01,Wunderground v.1.15,2013-07-19 20:31:00,
2013-07-19 16:32:00,89.0,77.1,29.92,SSW,192,0.0,3.0,68,0.00,,,0.01,Wunderground v.1.15,2013-07-19 20:32:00,
2013-07-19 16:34:00,89.0,77.1,29.92,SSW,192,0.0,3.0,68,0.00,,,0.01,Wunderground v.1.15,2013-07-19 20:34:00,
2013-07-19 16:35:00,89.1,76.3,29.92,SSW,192,1.0,3.0,66,0.00,,,0.01,Wunderground v.1.15,2013-07-19 20:35:00,
2013-07-19 16:36:00,89.2,75.9,29.92,SSW,192,0.0,3.0,65,0.00,,,0.01,Wunderground v.1.15,2013-07-19 20:36:00,
2013-07-19 16:38:00,89.3,76.4,29.92,SSW,192,3.0,3.0,66,0.00,,,0.01,Wunderground v.1.15,2013-07-19 20:38:00,
2013-07-19 16:39:00,89.5,75.7,29.92,SSW,192,0.0,3.0,64,0.00,,,0.01,Wunderground v.1.15,2013-07-19 20:39:00,
2013-07-19 16:40:00,89.7,76.4,29.92,SSW,192,1.0,2.0,65,0.00,,,0.01,Wunderground v.1.15,2013-07-19 20:40:00,
2013-07-19 16:41:00,89.7,76.4,29.92,SSW,192,0.0,2.0,65,0.00,,,0.01,Wunderground v.1.15,2013-07-19 20:41:00,
2013-07-19 16:43:00,89.8,75.5,29.92,SSW,192,0.0,2.0,63,0.00,,,0.01,Wunderground v.1.15,2013-07-19 20:43:00,
2013-07-19 16:44:00,89.9,75.6,29.92,SSW,192,0.0,2.0,63,0.00,,,0.01,Wunderground v.1.15,2013-07-19 20:44:00,
2013-07-19 16:45:00,90.1,75.3,29.92,SSW,192,0.0,3.0,62,0.00,,,0.01,Wunderground v.1.15,2013-07-19 20:45:00,
2013-07-19 16:46:00,90.2,73.9,29.92,SSW,192,1.0,3.0,59,0.00,,,0.01,Wunderground v.1.15,2013-07-19 20:46:00,
2013-07-19 16:48:00,90.3,76.9,29.92,SSW,192,0.0,3.0,65,0.00,,,0.01,Wunderground v.1.15,2013-07-19 20:48:00,
2013-07-19 16:49:00,90.5,76.2,29.92,SSW,192,0.0,3.0,63,0.00,,,0.01,Wunderground v.1.15,2013-07-19 20:49:00,
2013-07-19 16:50:00,90.6,75.8,29.92,SSW,192,3.0,3.0,62,0.00,,,0.01,Wunderground v.1.15,2013-07-19 20:50:00,
2013-07-19 16:52:00,90.7,74.9,29.92,SSW,192,1.0,3.0,60,0.00,,,0.01,Wunderground v.1.15,2013-07-19 20:52:00,
2013-07-19 16:53:00,90.8,74.5,29.92,SSW,192,0.0,3.0,59,0.00,,,0.01,Wunderground v.1.15,2013-07-19 20:53:00,
2013-07-19 16:54:00,90.8,75.0,29.92,SSW,194,4.0,7.0,60,0.00,,,0.01,Wunderground v.1.15,2013-07-19 20:54:00,
2013-07-19 16:56:00,90.6,75.8,29.92,SSW,194,1.0,7.0,62,0.00,,,0.01,Wunderground v.1.15,2013-07-19 20:56:00,
2013-07-19 16:57:00,90.6,75.8,29.92,SSW,194,1.0,7.0,62,0.00,,,0.01,Wunderground v.1.15,2013-07-19 20:57:00,
2013-07-19 16:58:00,90.5,76.7,29.91,SSW,194,0.0,7.0,64,0.00,,,0.01,Wunderground v.1.15,2013-07-19 20:58:00,
2013-07-19 17:00:00,90.4,74.6,29.91,SSW,194,1.0,4.0,60,0.00,,,0.01,Wunderground v.1.15,2013-07-19 21:00:00,
2013-07-19 17:01:00,90.3,74.0,29.91,SSW,194,4.0,5.0,59,0.00,,,0.01,Wunderground v.1.15,2013-07-19 21:01:00,
2013-07-19 17:02:00,90.1,73.8,29.91,SSW,194,1.0,5.0,59,0.00,,,0.01,Wunderground v.1.15,2013-07-19 21:02:00,
2013-07-19 17:03:00,90.0,73.7,29.91,SSW,194,2.0,6.0,59,0.00,,,0.01,Wunderground v.1.15,2013-07-19 21:03:00,
2013-07-19 17:05:00,89.8,75.5,29.92,SSW,194,1.0,6.0,63,0.00,,,0.01,Wunderground v.1.15,2013-07-19 21:05:00,
2013-07-19 17:07:00,89.7,75.9,29.92,SSW,194,0.0,6.0,64,0.00,,,0.01,Wunderground v.1.15,2013-07-19 21:07:00,
2013-07-19 17:08:00,89.8,77.4,29.92,SSW,194,1.0,6.0,67,0.00,,,0.01,Wunderground v.1.15,2013-07-19 21:08:00,
2013-07-19 17:11:00,89.7,74.5,29.92,SSW,195,0.0,3.0,61,0.00,,,0.01,Wunderground v.1.15,2013-07-19 21:11:00,
2013-07-19 17:12:00,89.7,74.9,29.91,SSW,195,1.0,3.0,62,0.00,,,0.01,Wunderground v.1.15,2013-07-19 21:12:00,
2013-07-19 17:14:00,89.7,75.9,29.91,SSW,195,2.0,5.0,64,0.00,,,0.01,Wunderground v.1.15,2013-07-19 21:14:00,
2013-07-19 17:16:00,89.3,75.5,29.91,SSW,195,2.0,5.0,64,0.00,,,0.01,Wunderground v.1.15,2013-07-19 21:16:00,
2013-07-19 17:17:00,89.2,75.0,29.91,SSW,195,0.0,5.0,63,0.00,,,0.01,Wunderground v.1.15,2013-07-19 21:17:00,
2013-07-19 17:18:00,89.2,75.4,29.91,SSW,195,0.0,5.0,64,0.00,,,0.01,Wunderground v.1.15,2013-07-19 21:18:00,
2013-07-19 17:19:00,89.2,75.9,29.91,SSW,195,2.0,2.0,65,0.00,,,0.01,Wunderground v.1.15,2013-07-19 21:19:00,
2013-07-19 17:21:00,89.2,77.3,29.91,SSW,195,0.0,2.0,68,0.00,,,0.01,Wunderground v.1.15,2013-07-19 21:21:00,
2013-07-19 17:23:00,89.2,75.9,29.91,SSW,195,0.0,2.0,65,0.00,,,0.01,Wunderground v.1.15,2013-07-19 21:23:00,
2013-07-19 17:24:00,89.3,75.5,29.91,SSW,195,1.0,2.0,64,0.00,,,0.01,Wunderground v.1.15,2013-07-19 21:24:00,
2013-07-19 17:25:00,89.3,76.9,29.91,SSW,195,0.0,2.0,67,0.00,,,0.01,Wunderground v.1.15,2013-07-19 21:25:00,
2013-07-19 17:26:00,89.4,76.5,29.91,SSW,195,0.0,2.0,66,0.00,,,0.01,Wunderground v.1.15,2013-07-19 21:26:00,
2013-07-19 17:28:00,89.6,77.6,29.91,SSW,195,0.0,2.0,68,0.00,,,0.01,Wunderground v.1.15,2013-07-19 21:28:00,
2013-07-19 17:29:00,89.7,77.3,29.91,SSW,195,2.0,2.0,67,0.00,,,0.01,Wunderground v.1.15,2013-07-19 21:29:00,
2013-07-19 17:30:00,89.7,75.9,29.91,SSW,195,0.0,2.0,64,0.00,,,0.01,Wunderground v.1.15,2013-07-19 21:30:00,
2013-07-19 17:31:00,89.7,76.8,29.91,SSW,195,0.0,2.0,66,0.00,,,0.01,Wunderground v.1.15,2013-07-19 21:31:00,
2013-07-19 17:33:00,89.8,78.3,29.91,SSW,195,0.0,3.0,69,0.00,,,0.01,Wunderground v.1.15,2013-07-19 21:33:00,
2013-07-19 17:35:00,89.7,76.4,29.91,SSW,195,0.0,3.0,65,0.00,,,0.01,Wunderground v.1.15,2013-07-19 21:35:00,
2013-07-19 17:36:00,89.6,77.2,29.91,SSW,195,1.0,4.0,67,0.00,,,0.01,Wunderground v.1.15,2013-07-19 21:36:00,
2013-07-19 17:38:00,89.5,76.6,29.91,SSW,195,0.0,4.0,66,0.00,,,0.01,Wunderground v.1.15,2013-07-19 21:38:00,
2013-07-19 17:40:00,89.3,76.9,29.90,SSW,195,0.0,1.0,67,0.00,,,0.01,Wunderground v.1.15,2013-07-19 21:40:00,
2013-07-19 17:41:00,89.2,75.9,29.91,SSW,195,2.0,2.0,65,0.00,,,0.01,Wunderground v.1.15,2013-07-19 21:41:00,
2013-07-19 17:43:00,88.9,76.1,29.91,SSW,195,0.0,2.0,66,0.00,,,0.01,Wunderground v.1.15,2013-07-19 21:43:00,
2013-07-19 17:44:00,88.9,76.1,29.91,SSW,195,0.0,2.0,66,0.00,,,0.01,Wunderground v.1.15,2013-07-19 21:44:00,
2013-07-19 17:45:00,88.8,76.0,29.91,SSW,195,0.0,2.0,66,0.00,,,0.01,Wunderground v.1.15,2013-07-19 21:45:00,
2013-07-19 17:46:00,88.7,75.9,29.91,SSW,195,0.0,2.0,66,0.00,,,0.01,Wunderground v.1.15,2013-07-19 21:46:00,
2013-07-19 17:49:00,88.5,75.7,29.91,SSW,195,0.0,2.0,66,0.00,,,0.01,Wunderground v.1.15,2013-07-19 21:49:00,
2013-07-19 17:50:00,88.5,76.6,29.91,SSW,195,0.0,0.0,68,0.00,,,0.01,Wunderground v.1.15,2013-07-19 21:50:00,
2013-07-19 17:51:00,88.4,76.5,29.91,SSW,195,2.0,3.0,68,0.00,,,0.01,Wunderground v.1.15,2013-07-19 21:51:00,
2013-07-19 17:54:00,88.1,75.8,29.91,SSW,195,0.0,3.0,67,0.00,,,0.01,Wunderground v.1.15,2013-07-19 21:54:00,
2013-07-19 17:55:00,88.0,77.4,29.91,SSW,195,1.0,3.0,71,0.00,,,0.01,Wunderground v.1.15,2013-07-19 21:55:00,
2013-07-19 17:56:00,87.8,76.8,29.91,SSW,195,1.0,3.0,70,0.00,,,0.01,Wunderground v.1.15,2013-07-19 21:56:00,
2013-07-19 17:57:00,87.7,76.3,29.91,SSW,195,0.0,3.0,69,0.00,,,0.01,Wunderground v.1.15,2013-07-19 21:57:00,
2013-07-19 17:59:00,87.5,76.5,29.91,SSW,195,0.0,3.0,70,0.00,,,0.01,Wunderground v.1.15,2013-07-19 21:59:00,
2013-07-19 18:00:00,87.4,76.4,29.91,SSW,195,0.0,2.0,70,0.00,,,0.01,Wunderground v.1.15,2013-07-19 22:00:00,
2013-07-19 18:01:00,87.3,77.2,29.91,SSW,195,0.0,2.0,72,0.00,,,0.01,Wunderground v.1.15,2013-07-19 22:01:00,
2013-07-19 18:02:00,87.1,77.0,29.91,SSW,195,1.0,2.0,72,0.00,,,0.01,Wunderground v.1.15,2013-07-19 22:02:00,
2013-07-19 18:04:00,87.0,76.5,29.91,SSW,195,2.0,3.0,71,0.00,,,0.01,Wunderground v.1.15,2013-07-19 22:04:00,
2013-07-19 18:05:00,87.0,76.9,29.91,SSW,195,1.0,3.0,72,0.00,,,0.01,Wunderground v.1.15,2013-07-19 22:05:00,
2013-07-19 18:06:00,86.9,75.9,29.91,SSW,195,1.0,3.0,70,0.00,,,0.01,Wunderground v.1.15,2013-07-19 22:06:00,
2013-07-19 18:07:00,86.8,75.8,29.91,SSW,195,0.0,3.0,70,0.00,,,0.01,Wunderground v.1.15,2013-07-19 22:07:00,
2013-07-19 18:09:00,86.9,76.8,29.91,SSW,195,0.0,3.0,72,0.00,,,0.01,Wunderground v.1.15,2013-07-19 22:09:00,
2013-07-19 18:10:00,87.0,77.3,29.91,SSW,195,0.0,1.0,73,0.00,,,0.01,Wunderground v.1.15,2013-07-19 22:10:00,
2013-07-19 18:11:00,87.0,77.7,29.91,SSW,195,0.0,1.0,74,0.00,,,0.01,Wunderground v.1.15,2013-07-19 22:11:00,
2013-07-19 18:12:00,87.1,78.2,29.91,SSW,195,0.0,1.0,75,0.00,,,0.01,Wunderground v.1.15,2013-07-19 22:12:00,
2013-07-19 18:13:00,87.1,78.2,29.91,SSW,195,1.0,1.0,75,0.00,,,0.01,Wunderground v.1.15,2013-07-19 22:13:00,
2013-07-19 18:15:00,87.2,78.3,29.91,SSW,195,0.0,2.0,75,0.00,,,0.01,Wunderground v.1.15,2013-07-19 22:15:00,
2013-07-19 18:16:00,87.3,77.6,29.91,SSW,195,0.0,2.0,73,0.00,,,0.01,Wunderground v.1.15,2013-07-19 22:16:00,
2013-07-19 18:17:00,87.4,77.7,29.91,SSW,195,0.0,2.0,73,0.00,,,0.01,Wunderground v.1.15,2013-07-19 22:17:00,
2013-07-19 18:18:00,87.4,77.7,29.91,SSW,195,1.0,2.0,73,0.00,,,0.01,Wunderground v.1.15,2013-07-19 22:18:00,
2013-07-19 18:20:00,87.6,77.9,29.90,SSW,195,0.0,1.0,73,0.00,,,0.01,Wunderground v.1.15,2013-07-19 22:20:00,
2013-07-19 18:21:00,87.6,77.5,29.90,SSW,195,2.0,2.0,72,0.00,,,0.01,Wunderground v.1.15,2013-07-19 22:21:00,
2013-07-19 18:22:00,87.6,77.5,29.90,SSW,195,0.0,2.0,72,0.00,,,0.01,Wunderground v.1.15,2013-07-19 22:22:00,
2013-07-19 18:23:00,87.6,78.3,29.90,SSW,195,1.0,2.0,74,0.00,,,0.01,Wunderground v.1.15,2013-07-19 22:23:00,
2013-07-19 18:25:00,87.6,77.9,29.90,SSW,195,0.0,2.0,73,0.00,,,0.01,Wunderground v.1.15,2013-07-19 22:25:00,
2013-07-19 18:27:00,87.6,77.5,29.90,SSW,195,0.0,2.0,72,0.00,,,0.01,Wunderground v.1.15,2013-07-19 22:27:00,
2013-07-19 18:28:00,87.5,77.4,29.90,SSW,195,0.0,2.0,72,0.00,,,0.01,Wunderground v.1.15,2013-07-19 22:28:00,
2013-07-19 18:31:00,87.4,76.8,29.90,SSW,195,0.0,2.0,71,0.00,,,0.01,Wunderground v.1.15,2013-07-19 22:31:00,
2013-07-19 18:32:00,87.3,76.3,29.90,SSW,195,0.0,2.0,70,0.00,,,0.01,Wunderground v.1.15,2013-07-19 22:32:00,
2013-07-19 18:33:00,87.2,76.6,29.90,SSW,195,0.0,2.0,71,0.00,,,0.01,Wunderground v.1.15,2013-07-19 22:33:00,
2013-07-19 18:36:00,87.1,77.0,29.89,SSW,195,1.0,2.0,72,0.00,,,0.01,Wunderground v.1.15,2013-07-19 22:36:00,
2013-07-19 18:37:00,87.0,76.9,29.89,SSW,195,0.0,2.0,72,0.00,,,0.01,Wunderground v.1.15,2013-07-19 22:37:00,
2013-07-19 18:38:00,87.0,76.9,29.89,SSW,195,0.0,2.0,72,0.00,,,0.01,Wunderground v.1.15,2013-07-19 22:38:00,
2013-07-19 18:39:00,86.9,77.2,29.89,SSW,195,0.0,2.0,73,0.00,,,0.01,Wunderground v.1.15,2013-07-19 22:39:00,
2013-07-19 18:41:00,86.8,77.5,29.89,SSW,195,0.0,1.0,74,0.00,,,0.01,Wunderground v.1.15,2013-07-19 22:41:00,
2013-07-19 18:42:00,86.8,77.5,29.89,SSW,195,0.0,1.0,74,0.00,,,0.01,Wunderground v.1.15,2013-07-19 22:42:00,
2013-07-19 18:43:00,86.8,77.9,29.89,SSW,195,1.0,2.0,75,0.00,,,0.01,Wunderground v.1.15,2013-07-19 22:43:00,
2013-07-19 18:44:00,86.7,77.4,29.89,SSW,195,2.0,2.0,74,0.00,,,0.01,Wunderground v.1.15,2013-07-19 22:44:00,
2013-07-19 18:47:00,86.6,77.7,29.89,SSW,195,0.0,2.0,75,0.00,,,0.01,Wunderground v.1.15,2013-07-19 22:47:00,
2013-07-19 18:48:00,86.6,78.1,29.89,SSW,195,0.0,2.0,76,0.00,,,0.01,Wunderground v.1.15,2013-07-19 22:48:00,
2013-07-19 18:49:00,86.6,77.7,29.89,SSW,195,0.0,2.0,75,0.00,,,0.01,Wunderground v.1.15,2013-07-19 22:49:00,
2013-07-19 18:52:00,86.4,77.1,29.89,SSW,195,0.0,1.0,74,0.00,,,0.01,Wunderground v.1.15,2013-07-19 22:52:00,
2013-07-19 18:54:00,86.3,77.0,29.89,SSW,195,0.0,2.0,74,0.00,,,0.01,Wunderground v.1.15,2013-07-19 22:54:00,
2013-07-19 18:55:00,86.3,77.8,29.89,SSW,195,0.0,2.0,76,0.00,,,0.01,Wunderground v.1.15,2013-07-19 22:55:00,
2013-07-19 18:57:00,86.2,76.9,29.90,SSW,195,1.0,2.0,74,0.00,,,0.01,Wunderground v.1.15,2013-07-19 22:57:00,
2013-07-19 18:59:00,86.2,76.9,29.89,SSW,195,0.0,2.0,74,0.00,,,0.01,Wunderground v.1.15,2013-07-19 22:59:00,
2013-07-19 19:00:00,86.1,76.4,29.90,SSW,195,0.0,1.0,73,0.00,,,0.01,Wunderground v.1.15,2013-07-19 23:00:00,
2013-07-19 19:03:00,85.9,77.1,29.89,SSW,195,0.0,1.0,75,0.00,,,0.01,Wunderground v.1.15,2013-07-19 23:03:00,
2013-07-19 19:04:00,85.9,77.5,29.89,SSW,195,0.0,1.0,76,0.00,,,0.01,Wunderground v.1.15,2013-07-19 23:04:00,
2013-07-19 19:05:00,85.9,77.8,29.89,SSW,195,0.0,1.0,77,0.00,,,0.01,Wunderground v.1.15,2013-07-19 23:05:00,
2013-07-19 19:08:00,85.6,76.4,29.89,SSW,195,0.0,1.0,74,0.00,,,0.01,Wunderground v.1.15,2013-07-19 23:08:00,
2013-07-19 19:09:00,85.6,76.4,29.90,SSW,195,0.0,0.0,74,0.00,,,0.01,Wunderground v.1.15,2013-07-19 23:09:00,
2013-07-19 19:11:00,85.5,76.7,29.90,SSW,195,0.0,0.0,75,0.00,,,0.01,Wunderground v.1.15,2013-07-19 23:11:00,
2013-07-19 19:13:00,85.4,76.6,29.90,SSW,195,0.0,2.0,75,0.00,,,0.01,Wunderground v.1.15,2013-07-19 23:13:00,
2013-07-19 19:14:00,85.4,76.6,29.90,SSW,195,1.0,2.0,75,0.00,,,0.01,Wunderground v.1.15,2013-07-19 23:14:00,
2013-07-19 19:15:00,85.3,76.1,29.90,SSW,195,0.0,2.0,74,0.00,,,0.01,Wunderground v.1.15,2013-07-19 23:15:00,
2013-07-19 19:16:00,85.3,76.9,29.90,SSW,195,0.0,2.0,76,0.00,,,0.01,Wunderground v.1.15,2013-07-19 23:16:00,
2013-07-19 19:17:00,85.3,76.9,29.90,SSW,195,1.0,2.0,76,0.00,,,0.01,Wunderground v.1.15,2013-07-19 23:17:00,
2013-07-19 19:18:00,85.3,76.5,29.90,SSW,195,0.0,2.0,75,0.00,,,0.01,Wunderground v.1.15,2013-07-19 23:18:00,
2013-07-19 19:20:00,85.4,77.0,29.90,SSW,195,0.0,0.0,76,0.00,,,0.01,Wunderground v.1.15,2013-07-19 23:20:00,
2013-07-19 19:21:00,85.4,76.6,29.90,SSW,195,0.0,1.0,75,0.00,,,0.01,Wunderground v.1.15,2013-07-19 23:21:00,
2013-07-19 19:22:00,85.4,76.6,29.90,SSW,195,2.0,2.0,75,0.00,,,0.01,Wunderground v.1.15,2013-07-19 23:22:00,
2013-07-19 19:23:00,85.4,76.6,29.90,SSW,195,0.0,2.0,75,0.00,,,0.01,Wunderground v.1.15,2013-07-19 23:23:00,
2013-07-19 19:26:00,85.4,77.0,29.90,SSW,195,0.0,2.0,76,0.00,,,0.01,Wunderground v.1.15,2013-07-19 23:26:00,
2013-07-19 19:27:00,85.4,76.6,29.90,SSW,194,0.0,3.0,75,0.00,,,0.01,Wunderground v.1.15,2013-07-19 23:27:00,
2013-07-19 19:28:00,85.4,76.2,29.89,SSW,194,2.0,3.0,74,0.00,,,0.01,Wunderground v.1.15,2013-07-19 23:28:00,
2013-07-19 19:31:00,85.3,75.7,29.89,SSW,194,0.0,2.0,73,0.00,,,0.01,Wunderground v.1.15,2013-07-19 23:31:00,
2013-07-19 19:32:00,85.2,76.4,29.90,SSW,194,0.0,2.0,75,0.00,,,0.01,Wunderground v.1.15,2013-07-19 23:32:00,
2013-07-19 19:33:00,85.2,75.6,29.90,SSW,194,0.0,3.0,73,0.00,,,0.01,Wunderground v.1.15,2013-07-19 23:33:00,
2013-07-19 19:36:00,85.1,75.5,29.90,SSW,194,0.0,3.0,73,0.00,,,0.01,Wunderground v.1.15,2013-07-19 23:36:00,
2013-07-19 19:37:00,85.1,75.5,29.90,SSW,194,0.0,3.0,73,0.00,,,0.01,Wunderground v.1.15,2013-07-19 23:37:00,
2013-07-19 19:38:00,85.1,75.9,29.90,SSW,194,0.0,3.0,74,0.00,,,0.01,Wunderground v.1.15,2013-07-19 23:38:00,
2013-07-19 19:39:00,85.1,75.9,29.90,SSW,194,2.0,3.0,74,0.00,,,0.01,Wunderground v.1.15,2013-07-19 23:39:00,
2013-07-19 19:42:00,85.0,75.8,29.90,SSW,194,0.0,1.0,74,0.00,,,0.01,Wunderground v.1.15,2013-07-19 23:42:00,
2013-07-19 19:43:00,84.9,75.7,29.90,SSW,194,0.0,1.0,74,0.00,,,0.01,Wunderground v.1.15,2013-07-19 23:43:00,
2013-07-19 19:44:00,84.9,76.5,29.90,SSW,194,1.0,2.0,76,0.00,,,0.01,Wunderground v.1.15,2013-07-19 23:44:00,
2013-07-19 19:47:00,84.7,75.9,29.90,SSW,194,0.0,2.0,75,0.00,,,0.01,Wunderground v.1.15,2013-07-19 23:47:00,
2013-07-19 19:48:00,84.7,75.9,29.90,SSW,194,0.0,2.0,75,0.00,,,0.01,Wunderground v.1.15,2013-07-19 23:48:00,
2013-07-19 19:49:00,84.6,75.8,29.90,SSW,194,0.0,2.0,75,0.00,,,0.01,Wunderground v.1.15,2013-07-19 23:49:00,
2013-07-19 19:52:00,84.4,76.0,29.90,SSW,194,1.0,1.0,76,0.00,,,0.01,Wunderground v.1.15,2013-07-19 23:52:00,
2013-07-19 19:53:00,84.4,76.0,29.90,SSW,194,0.0,1.0,76,0.00,,,0.01,Wunderground v.1.15,2013-07-19 23:53:00,
2013-07-19 19:54:00,84.3,75.9,29.90,SSW,194,0.0,1.0,76,0.00,,,0.01,Wunderground v.1.15,2013-07-19 23:54:00,
2013-07-19 19:58:00,84.2,76.6,29.90,SSW,194,0.0,1.0,78,0.00,,,0.01,Wunderground v.1.15,2013-07-19 23:58:00,
2013-07-19 19:59:00,84.2,76.2,29.90,SSW,194,1.0,1.0,77,0.00,,,0.01,Wunderground v.1.15,2013-07-19 23:59:00,
2013-07-19 20:00:00,84.2,76.2,29.90,SSW,194,0.0,0.0,77,0.00,,,0.01,Wunderground v.1.15,2013-07-20 00:00:00,
2013-07-19 20:03:00,84.0,75.6,29.90,SSW,194,1.0,1.0,76,0.00,,,0.01,Wunderground v.1.15,2013-07-20 00:03:00,
2013-07-19 20:04:00,83.9,75.5,29.90,SSW,194,0.0,1.0,76,0.00,,,0.01,Wunderground v.1.15,2013-07-20 00:04:00,
2013-07-19 20:05:00,83.9,75.9,29.90,SSW,194,0.0,1.0,77,0.00,,,0.01,Wunderground v.1.15,2013-07-20 00:05:00,
2013-07-19 20:08:00,83.8,75.4,29.90,SSW,194,0.0,1.0,76,0.00,,,0.01,Wunderground v.1.15,2013-07-20 00:08:00,
2013-07-19 20:09:00,83.8,76.2,29.90,SSW,194,0.0,1.0,78,0.00,,,0.01,Wunderground v.1.15,2013-07-20 00:09:00,
2013-07-19 20:10:00,83.7,76.1,29.90,SSW,194,0.0,0.0,78,0.00,,,0.01,Wunderground v.1.15,2013-07-20 00:10:00,
2013-07-19 20:13:00,83.6,76.0,29.90,SSW,194,0.0,1.0,78,0.00,,,0.01,Wunderground v.1.15,2013-07-20 00:13:00,
2013-07-19 20:14:00,83.6,75.2,29.90,SSW,194,0.0,1.0,76,0.00,,,0.01,Wunderground v.1.15,2013-07-20 00:14:00,
2013-07-19 20:15:00,83.4,74.6,29.90,SSW,194,0.0,1.0,75,0.00,,,0.01,Wunderground v.1.15,2013-07-20 00:15:00,
2013-07-19 20:18:00,83.4,75.0,29.90,SSW,194,2.0,3.0,76,0.00,,,0.01,Wunderground v.1.15,2013-07-20 00:18:00,
2013-07-19 20:19:00,83.4,74.6,29.90,SSW,194,1.0,3.0,75,0.00,,,0.01,Wunderground v.1.15,2013-07-20 00:19:00,
2013-07-19 20:20:00,83.3,74.9,29.90,SSW,194,0.0,1.0,76,0.00,,,0.01,Wunderground v.1.15,2013-07-20 00:20:00,
2013-07-19 20:24:00,83.2,75.2,29.90,SSW,194,0.0,1.0,77,0.00,,,0.01,Wunderground v.1.15,2013-07-20 00:24:00,
2013-07-19 20:25:00,83.2,74.8,29.90,SSW,194,0.0,1.0,76,0.00,,,0.01,Wunderground v.1.15,2013-07-20 00:25:00,
2013-07-19 20:26:00,83.1,74.7,29.91,SSW,194,0.0,1.0,76,0.00,,,0.01,Wunderground v.1.15,2013-07-20 00:26:00,
2013-07-19 20:29:00,83.0,73.9,29.90,SSW,194,0.0,2.0,74,0.00,,,0.01,Wunderground v.1.15,2013-07-20 00:29:00,
2013-07-19 20:30:00,82.9,74.2,29.90,SSW,194,0.0,0.0,75,0.00,,,0.01,Wunderground v.1.15,2013-07-20 00:30:00,
2013-07-19 20:31:00,82.9,74.6,29.90,SSW,194,0.0,0.0,76,0.00,,,0.01,Wunderground v.1.15,2013-07-20 00:31:00,
2013-07-19 20:34:00,82.9,74.9,29.90,SSW,194,0.0,0.0,77,0.00,,,0.01,Wunderground v.1.15,2013-07-20 00:34:00,
2013-07-19 20:35:00,82.9,74.9,29.91,SSW,194,0.0,0.0,77,0.00,,,0.01,Wunderground v.1.15,2013-07-20 00:35:00,
2013-07-19 20:36:00,82.9,74.9,29.91,SSW,194,0.0,0.0,77,0.00,,,0.01,Wunderground v.1.15,2013-07-20 00:36:00,
2013-07-19 20:37:00,82.9,74.9,29.91,SSW,194,0.0,0.0,77,0.00,,,0.01,Wunderground v.1.15,2013-07-20 00:37:00,
2013-07-19 20:39:00,82.8,75.2,29.91,SSW,194,0.0,1.0,78,0.00,,,0.01,Wunderground v.1.15,2013-07-20 00:39:00,
2013-07-19 20:41:00,82.7,75.1,29.91,SSW,194,0.0,0.0,78,0.00,,,0.01,Wunderground v.1.15,2013-07-20 00:41:00,
2013-07-19 20:42:00,82.7,75.5,29.91,SSW,194,0.0,0.0,79,0.00,,,0.01,Wunderground v.1.15,2013-07-20 00:42:00,
2013-07-19 20:44:00,82.5,75.3,29.91,SSW,194,0.0,0.0,79,0.00,,,0.01,Wunderground v.1.15,2013-07-20 00:44:00,
2013-07-19 20:46:00,82.5,75.7,29.91,SSW,194,0.0,0.0,80,0.00,,,0.01,Wunderground v.1.15,2013-07-20 00:46:00,
2013-07-19 20:47:00,82.3,75.1,29.91,SSW,194,0.0,0.0,79,0.00,,,0.01,Wunderground v.1.15,2013-07-20 00:47:00,
2013-07-19 20:48:00,82.3,74.7,29.91,SSW,194,0.0,1.0,78,0.00,,,0.01,Wunderground v.1.15,2013-07-20 00:48:00,
2013-07-19 20:49:00,82.2,75.0,29.91,SSW,194,0.0,0.0,79,0.00,,,0.01,Wunderground v.1.15,2013-07-20 00:49:00,
2013-07-19 20:50:00,82.1,74.9,29.91,SSW,194,0.0,0.0,79,0.00,,,0.01,Wunderground v.1.15,2013-07-20 00:50:00,
2013-07-19 20:51:00,82.1,74.6,29.91,SSW,194,0.0,1.0,78,0.00,,,0.01,Wunderground v.1.15,2013-07-20 00:51:00,
2013-07-19 20:52:00,82.0,74.5,29.92,SSW,194,0.0,1.0,78,0.00,,,0.01,Wunderground v.1.15,2013-07-20 00:52:00,
2013-07-19 20:54:00,82.0,74.5,29.92,SSW,194,1.0,1.0,78,0.00,,,0.01,Wunderground v.1.15,2013-07-20 00:54:00,
2013-07-19 20:55:00,81.9,74.4,29.92,SSW,194,0.0,2.0,78,0.00,,,0.01,Wunderground v.1.15,2013-07-20 00:55:00,
2013-07-19 20:56:00,81.9,74.4,29.92,SSW,194,1.0,2.0,78,0.00,,,0.01,Wunderground v.1.15,2013-07-20 00:56:00,
2013-07-19 20:58:00,81.9,74.4,29.92,SSW,194,0.0,2.0,78,0.00,,,0.01,Wunderground v.1.15,2013-07-20 00:58:00,
2013-07-19 20:59:00,81.8,74.3,29.92,SSW,194,1.0,1.0,78,0.00,,,0.01,Wunderground v.1.15,2013-07-20 00:59:00,
2013-07-19 21:00:00,81.8,74.3,29.92,SSW,194,0.0,1.0,78,0.00,,,0.01,Wunderground v.1.15,2013-07-20 01:00:00,
2013-07-19 21:01:00,81.8,74.3,29.92,SSW,194,0.0,1.0,78,0.00,,,0.01,Wunderground v.1.15,2013-07-20 01:01:00,
2013-07-19 21:03:00,81.8,74.3,29.92,SSW,194,0.0,1.0,78,0.00,,,0.01,Wunderground v.1.15,2013-07-20 01:03:00,
2013-07-19 21:04:00,81.7,73.8,29.92,SSW,194,1.0,1.0,77,0.00,,,0.01,Wunderground v.1.15,2013-07-20 01:04:00,
2013-07-19 21:05:00,81.7,73.8,29.92,SSW,194,2.0,2.0,77,0.00,,,0.01,Wunderground v.1.15,2013-07-20 01:05:00,
2013-07-19 21:06:00,81.7,74.2,29.92,SSW,194,0.0,2.0,78,0.00,,,0.01,Wunderground v.1.15,2013-07-20 01:06:00,
2013-07-19 21:07:00,81.6,74.1,29.92,SSW,194,1.0,2.0,78,0.00,,,0.01,Wunderground v.1.15,2013-07-20 01:07:00,
2013-07-19 21:08:00,81.6,74.1,29.92,SSW,194,0.0,2.0,78,0.00,,,0.01,Wunderground v.1.15,2013-07-20 01:08:00,
2013-07-19 21:10:00,81.6,74.1,29.92,SSW,194,0.0,0.0,78,0.00,,,0.01,Wunderground v.1.15,2013-07-20 01:10:00,
2013-07-19 21:11:00,81.6,74.5,29.92,SSW,194,0.0,0.0,79,0.00,,,0.01,Wunderground v.1.15,2013-07-20 01:11:00,
2013-07-19 21:12:00,81.5,74.0,29.92,SSW,194,0.0,1.0,78,0.00,,,0.01,Wunderground v.1.15,2013-07-20 01:12:00,
2013-07-19 21:13:00,81.5,74.4,29.92,SSW,194,0.0,1.0,79,0.00,,,0.01,Wunderground v.1.15,2013-07-20 01:13:00,
2013-07-19 21:15:00,81.3,73.4,29.92,SSW,194,0.0,2.0,77,0.00,,,0.01,Wunderground v.1.15,2013-07-20 01:15:00,
2013-07-19 21:16:00,81.3,73.4,29.92,SSW,194,0.0,2.0,77,0.00,,,0.01,Wunderground v.1.15,2013-07-20 01:16:00,
2013-07-19 21:17:00,81.3,73.0,29.92,SSW,194,0.0,2.0,76,0.00,,,0.01,Wunderground v.1.15,2013-07-20 01:17:00,
2013-07-19 21:18:00,81.2,72.9,29.92,SSW,194,0.0,2.0,76,0.00,,,0.01,Wunderground v.1.15,2013-07-20 01:18:00,
2013-07-19 21:20:00,81.2,72.9,29.92,SSW,194,2.0,3.0,76,0.00,,,0.01,Wunderground v.1.15,2013-07-20 01:20:00,
2013-07-19 21:22:00,81.2,72.9,29.92,SSW,194,0.0,3.0,76,0.00,,,0.01,Wunderground v.1.15,2013-07-20 01:22:00,
2013-07-19 21:23:00,81.2,72.9,29.92,SSW,194,0.0,3.0,76,0.00,,,0.01,Wunderground v.1.15,2013-07-20 01:23:00,
2013-07-19 21:26:00,81.2,72.5,29.92,SSW,194,0.0,3.0,75,0.00,,,0.01,Wunderground v.1.15,2013-07-20 01:26:00,
2013-07-19 21:27:00,81.2,72.5,29.92,SSW,194,0.0,3.0,75,0.00,,,0.01,Wunderground v.1.15,2013-07-20 01:27:00,
2013-07-19 21:28:00,81.1,72.4,29.92,SSW,194,0.0,3.0,75,0.00,,,0.01,Wunderground v.1.15,2013-07-20 01:28:00,
2013-07-19 21:32:00,81.1,72.4,29.93,SSW,194,0.0,1.0,75,0.00,,,0.01,Wunderground v.1.15,2013-07-20 01:32:00,
2013-07-19 21:33:00,81.1,72.4,29.93,SSW,194,0.0,1.0,75,0.00,,,0.01,Wunderground v.1.15,2013-07-20 01:33:00,
2013-07-19 21:37:00,81.0,72.3,29.93,SSW,194,0.0,1.0,75,0.00,,,0.01,Wunderground v.1.15,2013-07-20 01:37:00,
2013-07-19 21:38:00,81.0,72.3,29.93,SSW,194,0.0,1.0,75,0.00,,,0.01,Wunderground v.1.15,2013-07-20 01:38:00,
2013-07-19 21:39:00,81.0,72.3,29.92,SSW,194,0.0,1.0,75,0.00,,,0.01,Wunderground v.1.15,2013-07-20 01:39:00,
2013-07-19 21:43:00,80.9,72.2,29.93,SSW,194,0.0,0.0,75,0.00,,,0.01,Wunderground v.1.15,2013-07-20 01:43:00,
2013-07-19 21:44:00,80.8,72.1,29.93,SSW,194,0.0,0.0,75,0.00,,,0.01,Wunderground v.1.15,2013-07-20 01:44:00,
2013-07-19 21:48:00,80.9,72.6,29.93,SSW,196,0.0,4.0,76,0.00,,,0.01,Wunderground v.1.15,2013-07-20 01:48:00,
2013-07-19 21:49:00,80.9,72.6,29.93,SSW,196,2.0,2.0,76,0.00,,,0.01,Wunderground v.1.15,2013-07-20 01:49:00,
2013-07-19 21:50:00,80.9,72.6,29.93,SSW,196,0.0,2.0,76,0.00,,,0.01,Wunderground v.1.15,2013-07-20 01:50:00,
2013-07-19 21:53:00,80.9,73.8,29.93,SSW,196,0.0,2.0,79,0.00,,,0.01,Wunderground v.1.15,2013-07-20 01:53:00,
2013-07-19 21:55:00,80.9,73.8,29.93,SSW,196,0.0,2.0,79,0.00,,,0.01,Wunderground v.1.15,2013-07-20 01:55:00,
2013-07-19 21:58:00,80.7,73.2,29.94,SSW,196,0.0,2.0,78,0.00,,,0.01,Wunderground v.1.15,2013-07-20 01:58:00,
2013-07-19 22:00:00,80.6,73.1,29.93,SSW,196,1.0,1.0,78,0.00,,,0.01,Wunderground v.1.15,2013-07-20 02:00:00,
2013-07-19 22:04:00,80.5,73.0,29.93,SSW,196,3.0,3.0,78,0.00,,,0.01,Wunderground v.1.15,2013-07-20 02:04:00,
2013-07-19 22:05:00,80.4,72.9,29.93,SSW,196,1.0,3.0,78,0.00,,,0.01,Wunderground v.1.15,2013-07-20 02:05:00,
2013-07-19 22:09:00,80.4,72.9,29.93,SSW,196,0.0,3.0,78,0.00,,,0.01,Wunderground v.1.15,2013-07-20 02:09:00,
2013-07-19 22:10:00,80.3,72.8,29.93,SSW,196,0.0,0.0,78,0.00,,,0.01,Wunderground v.1.15,2013-07-20 02:10:00,
2013-07-19 22:11:00,80.3,72.8,29.93,SSW,196,0.0,1.0,78,0.00,,,0.01,Wunderground v.1.15,2013-07-20 02:11:00,
2013-07-19 22:15:00,80.3,72.8,29.94,SSW,196,0.0,2.0,78,0.00,,,0.01,Wunderground v.1.15,2013-07-20 02:15:00,
2013-07-19 22:16:00,80.3,72.8,29.94,SSW,196,0.0,2.0,78,0.00,,,0.01,Wunderground v.1.15,2013-07-20 02:16:00,
2013-07-19 22:20:00,80.2,72.7,29.95,SSW,196,0.0,0.0,78,0.00,,,0.01,Wunderground v.1.15,2013-07-20 02:20:00,
2013-07-19 22:21:00,80.2,72.7,29.95,SSW,196,0.0,0.0,78,0.00,,,0.01,Wunderground v.1.15,2013-07-20 02:21:00,
2013-07-19 22:26:00,80.2,72.3,29.95,SSW,196,0.0,1.0,77,0.00,,,0.01,Wunderground v.1.15,2013-07-20 02:26:00,
2013-07-19 22:27:00,80.1,72.2,29.95,SSW,196,0.0,1.0,77,0.00,,,0.01,Wunderground v.1.15,2013-07-20 02:27:00,
2013-07-19 22:31:00,80.0,71.4,29.94,SSW,196,0.0,2.0,75,0.00,,,0.01,Wunderground v.1.15,2013-07-20 02:31:00,
2013-07-19 22:32:00,80.0,71.4,29.94,SSW,196,2.0,2.0,75,0.00,,,0.01,Wunderground v.1.15,2013-07-20 02:32:00,
2013-07-19 22:36:00,80.1,71.1,29.94,SSW,196,1.0,2.0,74,0.00,,,0.01,Wunderground v.1.15,2013-07-20 02:36:00,
2013-07-19 22:38:00,80.1,71.1,29.94,SSW,196,0.0,2.0,74,0.00,,,0.01,Wunderground v.1.15,2013-07-20 02:38:00,
2013-07-19 22:41:00,80.2,71.2,29.94,SSW,195,1.0,3.0,74,0.00,,,0.01,Wunderground v.1.15,2013-07-20 02:41:00,
2013-07-19 22:42:00,80.2,71.2,29.94,SSW,196,0.0,3.0,74,0.00,,,0.01,Wunderground v.1.15,2013-07-20 02:42:00,
2013-07-19 22:43:00,80.2,71.2,29.94,SSW,195,0.0,3.0,74,0.00,,,0.01,Wunderground v.1.15,2013-07-20 02:43:00,
2013-07-19 22:46:00,80.2,71.2,29.94,SSW,195,1.0,3.0,74,0.00,,,0.01,Wunderground v.1.15,2013-07-20 02:46:00,
2013-07-19 22:47:00,80.2,71.2,29.94,SSW,195,1.0,3.0,74,0.00,,,0.01,Wunderground v.1.15,2013-07-20 02:47:00,
2013-07-19 22:48:00,80.2,71.9,29.94,SSW,195,0.0,3.0,76,0.00,,,0.01,Wunderground v.1.15,2013-07-20 02:48:00,
2013-07-19 22:52:00,80.0,71.8,29.94,SSW,195,1.0,1.0,76,0.00,,,0.01,Wunderground v.1.15,2013-07-20 02:52:00,
2013-07-19 22:53:00,80.0,71.8,29.94,SSW,196,1.0,1.0,76,0.00,,,0.01,Wunderground v.1.15,2013-07-20 02:53:00,
2013-07-19 22:57:00,79.5,72.0,29.94,SSW,195,0.0,2.0,78,0.00,,,0.01,Wunderground v.1.15,2013-07-20 02:57:00,
2013-07-19 22:58:00,79.5,71.7,29.94,SSW,196,0.0,2.0,77,0.00,,,0.01,Wunderground v.1.15,2013-07-20 02:58:00,
2013-07-19 23:02:00,79.1,72.0,29.94,SSW,196,0.0,1.0,79,0.00,,,0.01,Wunderground v.1.15,2013-07-20 03:02:00,
2013-07-19 23:03:00,79.0,71.9,29.94,SSW,195,0.0,1.0,79,0.00,,,0.01,Wunderground v.1.15,2013-07-20 03:03:00,
2013-07-19 23:07:00,78.7,71.3,29.94,SSW,195,0.0,1.0,78,0.00,,,0.01,Wunderground v.1.15,2013-07-20 03:07:00,
2013-07-19 23:08:00,78.7,70.9,29.94,SSW,196,0.0,1.0,77,0.00,,,0.01,Wunderground v.1.15,2013-07-20 03:08:00,
2013-07-19 23:09:00,78.7,70.9,29.94,SSW,196,0.0,1.0,77,0.00,,,0.01,Wunderground v.1.15,2013-07-20 03:09:00,
2013-07-19 23:12:00,78.6,71.2,29.94,SSW,196,0.0,0.0,78,0.00,,,0.01,Wunderground v.1.15,2013-07-20 03:12:00,
2013-07-19 23:13:00,78.5,71.1,29.94,SSW,195,0.0,0.0,78,0.00,,,0.01,Wunderground v.1.15,2013-07-20 03:13:00,
2013-07-19 23:14:00,78.5,71.1,29.94,SSW,196,0.0,0.0,78,0.00,,,0.01,Wunderground v.1.15,2013-07-20 03:14:00,
2013-07-19 23:17:00,78.4,71.7,29.94,SSW,196,0.0,0.0,80,0.00,,,0.01,Wunderground v.1.15,2013-07-20 03:17:00,
2013-07-19 23:18:00,78.4,71.3,29.95,SSW,196,0.0,0.0,79,0.00,,,0.01,Wunderground v.1.15,2013-07-20 03:18:00,
2013-07-19 23:19:00,78.4,71.3,29.95,SSW,196,0.0,0.0,79,0.00,,,0.01,Wunderground v.1.15,2013-07-20 03:19:00,
2013-07-19 23:20:00,78.3,71.6,29.95,SSW,196,0.0,0.0,80,0.00,,,0.01,Wunderground v.1.15,2013-07-20 03:20:00,
2013-07-19 23:22:00,78.3,71.6,29.95,SSW,196,0.0,1.0,80,0.00,,,0.01,Wunderground v.1.15,2013-07-20 03:22:00,
2013-07-19 23:23:00,78.3,71.6,29.95,SSW,196,1.0,1.0,80,0.00,,,0.01,Wunderground v.1.15,2013-07-20 03:23:00,
2013-07-19 23:24:00,78.2,71.5,29.95,SSW,195,0.0,1.0,80,0.00,,,0.01,Wunderground v.1.15,2013-07-20 03:24:00,
2013-07-19 23:25:00,78.2,71.5,29.95,SSW,195,0.0,1.0,80,0.00,,,0.01,Wunderground v.1.15,2013-07-20 03:25:00,
2013-07-19 23:28:00,78.1,71.8,29.95,SSW,196,0.0,1.0,81,0.00,,,0.01,Wunderground v.1.15,2013-07-20 03:28:00,
2013-07-19 23:29:00,78.1,71.8,29.95,SSW,195,0.0,1.0,81,0.00,,,0.01,Wunderground v.1.15,2013-07-20 03:29:00,
2013-07-19 23:30:00,78.0,72.1,29.95,SSW,196,0.0,0.0,82,0.00,,,0.01,Wunderground v.1.15,2013-07-20 03:30:00,
2013-07-19 23:33:00,78.0,72.1,29.95,SSW,196,0.0,0.0,82,0.00,,,0.01,Wunderground v.1.15,2013-07-20 03:33:00,
2013-07-19 23:34:00,77.9,72.0,29.95,SSW,196,0.0,0.0,82,0.00,,,0.01,Wunderground v.1.15,2013-07-20 03:34:00,
2013-07-19 23:36:00,77.8,71.9,29.95,SSW,196,0.0,0.0,82,0.00,,,0.01,Wunderground v.1.15,2013-07-20 03:36:00,
2013-07-19 23:38:00,77.8,72.2,29.95,SSW,195,0.0,0.0,83,0.00,,,0.01,Wunderground v.1.15,2013-07-20 03:38:00,
2013-07-19 23:39:00,77.7,71.8,29.95,SSW,195,0.0,0.0,82,0.00,,,0.01,Wunderground v.1.15,2013-07-20 03:39:00,
2013-07-19 23:40:00,77.7,71.8,29.95,SSW,196,0.0,0.0,82,0.00,,,0.01,Wunderground v.1.15,2013-07-20 03:40:00,
2013-07-19 23:41:00,77.6,71.7,29.95,SSW,196,0.0,0.0,82,0.00,,,0.01,Wunderground v.1.15,2013-07-20 03:41:00,
2013-07-19 23:43:00,77.5,71.6,29.94,SSW,196,0.0,0.0,82,0.00,,,0.01,Wunderground v.1.15,2013-07-20 03:43:00,
2013-07-19 23:44:00,77.5,71.6,29.94,SSW,195,0.0,0.0,82,0.00,,,0.01,Wunderground v.1.15,2013-07-20 03:44:00,
2013-07-19 23:45:00,77.5,71.6,29.94,SSW,196,0.0,0.0,82,0.00,,,0.01,Wunderground v.1.15,2013-07-20 03:45:00,
2013-07-19 23:46:00,77.4,71.5,29.95,SSW,195,0.0,0.0,82,0.00,,,0.01,Wunderground v.1.15,2013-07-20 03:46:00,
2013-07-19 23:49:00,77.3,71.4,29.95,SSW,196,0.0,1.0,82,0.00,,,0.01,Wunderground v.1.15,2013-07-20 03:49:00,
2013-07-19 23:50:00,77.3,71.4,29.95,SSW,195,0.0,0.0,82,0.00,,,0.01,Wunderground v.1.15,2013-07-20 03:50:00,
2013-07-19 23:51:00,77.3,71.7,29.95,SSW,196,0.0,1.0,83,0.00,,,0.01,Wunderground v.1.15,2013-07-20 03:51:00,
2013-07-19 23:54:00,77.3,72.1,29.95,SSW,196,0.0,1.0,84,0.00,,,0.01,Wunderground v.1.15,2013-07-20 03:54:00,
2013-07-19 23:55:00,77.3,72.1,29.95,SSW,196,1.0,1.0,84,0.00,,,0.01,Wunderground v.1.15,2013-07-20 03:55:00,
2013-07-19 23:58:00,77.1,71.9,29.95,SSW,196,0.0,2.0,84,0.00,,,0.01,Wunderground v.1.15,2013-07-20 03:58:00,